Observation data for New Home on 12/09/2018      Previous  Date       Current Mesonet Observations  Soil Data  Daily Summary Page  Observations in Plain Language
KNH1 090600Z 30003KT M05/M05 A3031 RMK A01 T10481052  RH  097%=      5-min Rain = 0
KNH1 090601Z 30004KT M05/M05 A3031 RMK A01 T10471051  RH  097%=      5-min Rain = 0
KNH1 090602Z 30003KT M05/M05 A3031 RMK A01 T10471051  RH  097%=      5-min Rain = 0
KNH1 090603Z 29003KT M05/M05 A3031 RMK A01 T10461050  RH  097%=      5-min Rain = 0
KNH1 090604Z 30002KT M05/M05 A3031 RMK A01 T10471052  RH  097%=      5-min Rain = 0
KNH1 090605Z 28002KT M05/M05 A3031 RMK A01 T10481053  RH  097%=      5-min Rain = 0
KNH1 090606Z 29002KT M05/M05 A3031 RMK A01 T10491054  RH  097%=      5-min Rain = 0
KNH1 090607Z 29003KT M05/M06 A3031 RMK A01 T10501055  RH  096%=      5-min Rain = 0
KNH1 090608Z 29003KT M05/M06 A3031 RMK A01 T10501055  RH  096%=      5-min Rain = 0
KNH1 090609Z 30003KT M05/M06 A3031 RMK A01 T10501055  RH  096%=      5-min Rain = 0
KNH1 090610Z 30004KT M05/M06 A3031 RMK A01 T10501055  RH  096%=      5-min Rain = 0
KNH1 090611Z 30004KT M05/M06 A3031 RMK A01 T10511056  RH  096%=      5-min Rain = 0
KNH1 090612Z 30003KT M05/M06 A3031 RMK A01 T10511056  RH  096%=      5-min Rain = 0
KNH1 090613Z 30003KT M05/M06 A3031 RMK A01 T10511056  RH  096%=      5-min Rain = 0
KNH1 090614Z 30003KT M05/M06 A3031 RMK A01 T10511056  RH  096%=      5-min Rain = 0
KNH1 090615Z 30003KT M05/M06 A3031 RMK A01 T10511056  RH  096%=      5-min Rain = 0
KNH1 090616Z 29003KT M05/M06 A3031 RMK A01 T10511056  RH  096%=      5-min Rain = 0
KNH1 090617Z 29003KT M05/M06 A3031 RMK A01 T10511056  RH  096%=      5-min Rain = 0
KNH1 090618Z 29004KT M05/M06 A3031 RMK A01 T10511056  RH  096%=      5-min Rain = 0
KNH1 090619Z 29004KT M05/M06 A3031 RMK A01 T10511056  RH  096%=      5-min Rain = 0
KNH1 090620Z 29004KT M05/M06 A3031 RMK A01 T10521057  RH  096%=      5-min Rain = 0
KNH1 090621Z 30004KT M05/M06 A3031 RMK A01 T10521057  RH  096%=      5-min Rain = 0
KNH1 090622Z 30004KT M05/M06 A3031 RMK A01 T10521057  RH  096%=      5-min Rain = 0
KNH1 090623Z 30004KT M05/M06 A3031 RMK A01 T10521057  RH  096%=      5-min Rain = 0
KNH1 090624Z 30004KT M05/M06 A3031 RMK A01 T10521057  RH  096%=      5-min Rain = 0
KNH1 090625Z 29004KT M05/M06 A3031 RMK A01 T10521057  RH  096%=      5-min Rain = 0
KNH1 090626Z 30003KT M05/M06 A3031 RMK A01 T10521057  RH  096%=      5-min Rain = 0
KNH1 090627Z 30003KT M05/M06 A3031 RMK A01 T10521057  RH  096%=      5-min Rain = 0
KNH1 090628Z 30003KT M05/M06 A3031 RMK A01 T10521057  RH  096%=      5-min Rain = 0
KNH1 090629Z 30003KT M05/M06 A3031 RMK A01 T10531058  RH  096%=      5-min Rain = 0
KNH1 090630Z 30002KT M05/M06 A3031 RMK A01 T10531058  RH  096%=      5-min Rain = 0
KNH1 090631Z 31002KT M05/M06 A3031 RMK A01 T10531058  RH  096%=      5-min Rain = 0
KNH1 090632Z 30002KT M05/M06 A3031 RMK A01 T10531059  RH  096%=      5-min Rain = 0
KNH1 090633Z 30003KT M05/M06 A3031 RMK A01 T10531058  RH  096%=      5-min Rain = 0
KNH1 090634Z 30003KT M05/M06 A3031 RMK A01 T10521057  RH  096%=      5-min Rain = 0
KNH1 090635Z 30003KT M05/M06 A3031 RMK A01 T10511056  RH  096%=      5-min Rain = 0
KNH1 090636Z 30003KT M05/M06 A3031 RMK A01 T10511056  RH  096%=      5-min Rain = 0
KNH1 090637Z 31004KT M05/M06 A3031 RMK A01 T10511056  RH  096%=      5-min Rain = 0
KNH1 090638Z 30004KT M05/M06 A3031 RMK A01 T10511056  RH  096%=      5-min Rain = 0
KNH1 090639Z 31004KT M05/M06 A3031 RMK A01 T10521057  RH  096%=      5-min Rain = 0
KNH1 090640Z 31003KT M05/M06 A3031 RMK A01 T10521057  RH  096%=      5-min Rain = 0
KNH1 090641Z 30003KT M05/M06 A3031 RMK A01 T10521057  RH  096%=      5-min Rain = 0
KNH1 090642Z 30003KT M05/M06 A3031 RMK A01 T10521057  RH  096%=      5-min Rain = 0
KNH1 090643Z 30003KT M05/M06 A3031 RMK A01 T10521057  RH  096%=      5-min Rain = 0
KNH1 090644Z 31003KT M05/M06 A3031 RMK A01 T10521058  RH  096%=      5-min Rain = 0
KNH1 090645Z 30004KT M05/M06 A3031 RMK A01 T10521058  RH  096%=      5-min Rain = 0
KNH1 090646Z 30003KT M05/M06 A3031 RMK A01 T10521058  RH  096%=      5-min Rain = 0
KNH1 090647Z 30003KT M05/M06 A3031 RMK A01 T10531058  RH  096%=      5-min Rain = 0
KNH1 090648Z 30003KT M05/M06 A3031 RMK A01 T10531058  RH  096%=      5-min Rain = 0
KNH1 090649Z 31003KT M05/M06 A3031 RMK A01 T10531058  RH  096%=      5-min Rain = 0
KNH1 090650Z 31002KT M05/M06 A3031 RMK A01 T10531058  RH  096%=      5-min Rain = 0
KNH1 090651Z 31003KT M05/M06 A3031 RMK A01 T10531059  RH  096%=      5-min Rain = 0
KNH1 090652Z 32002KT M05/M06 A3031 RMK A01 T10531059  RH  096%=      5-min Rain = 0
KNH1 090653Z 32002KT M05/M06 A3031 RMK A01 T10531059  RH  096%=      5-min Rain = 0
KNH1 090654Z 33002KT M05/M06 A3031 RMK A01 T10541059  RH  096%=      5-min Rain = 0
KNH1 090655Z 32002KT M05/M06 A3031 RMK A01 T10541059  RH  096%=      5-min Rain = 0
KNH1 090656Z 32002KT M05/M06 A3031 RMK A01 T10541059  RH  096%=      5-min Rain = 0
KNH1 090657Z 32003KT M05/M06 A3031 RMK A01 T10541059  RH  096%=      5-min Rain = 0
KNH1 090658Z 32002KT M05/M06 A303 RMK A01 T10541059  RH  096%=      5-min Rain = 0
KNH1 090659Z 32002KT M05/M06 A303 RMK A01 T10541059  RH  096%=      5-min Rain = 0
KNH1 090700Z 31002KT M05/M06 A303 RMK A01 T10531059  RH  096%=      5-min Rain = 0
KNH1 090701Z 32002KT M05/M06 A303 RMK A01 T10531059  RH  096%=      5-min Rain = 0
KNH1 090702Z 33002KT M05/M06 A303 RMK A01 T10531059  RH  096%=      5-min Rain = 0
KNH1 090703Z 32002KT M05/M06 A303 RMK A01 T10541059  RH  096%=      5-min Rain = 0
KNH1 090704Z 32002KT M05/M06 A303 RMK A01 T10531059  RH  096%=      5-min Rain = 0
KNH1 090705Z 32002KT M05/M06 A3031 RMK A01 T10531059  RH  096%=      5-min Rain = 0
KNH1 090706Z 32002KT M05/M06 A3031 RMK A01 T10531059  RH  096%=      5-min Rain = 0
KNH1 090707Z 32003KT M05/M06 A3031 RMK A01 T10541059  RH  096%=      5-min Rain = 0
KNH1 090708Z 32002KT M05/M06 A3031 RMK A01 T10531059  RH  096%=      5-min Rain = 0
KNH1 090709Z 31002KT M05/M06 A3031 RMK A01 T10531059  RH  096%=      5-min Rain = 0
KNH1 090710Z 31003KT M05/M06 A303 RMK A01 T10531059  RH  096%=      5-min Rain = 0
KNH1 090711Z 31003KT M05/M06 A303 RMK A01 T10541059  RH  096%=      5-min Rain = 0
KNH1 090712Z 31003KT M05/M06 A303 RMK A01 T10541059  RH  096%=      5-min Rain = 0
KNH1 090713Z 31002KT M05/M06 A303 RMK A01 T10541060  RH  096%=      5-min Rain = 0
KNH1 090714Z 31002KT M06/M06 A303 RMK A01 T10551061  RH  096%=      5-min Rain = 0
KNH1 090715Z 31002KT M05/M06 A303 RMK A01 T10541060  RH  096%=      5-min Rain = 0
KNH1 090716Z 32002KT M06/M06 A303 RMK A01 T10551061  RH  096%=      5-min Rain = 0
KNH1 090717Z 32002KT M06/M06 A303 RMK A01 T10551061  RH  096%=      5-min Rain = 0
KNH1 090718Z 33002KT M06/M06 A303 RMK A01 T10551060  RH  096%=      5-min Rain = 0
KNH1 090719Z 33003KT M05/M06 A303 RMK A01 T10541060  RH  096%=      5-min Rain = 0
KNH1 090720Z 33004KT M05/M06 A303 RMK A01 T10541060  RH  096%=      5-min Rain = 0
KNH1 090721Z 33004KT M05/M06 A303 RMK A01 T10541060  RH  096%=      5-min Rain = 0
KNH1 090722Z 33003KT M05/M06 A303 RMK A01 T10541060  RH  096%=      5-min Rain = 0
KNH1 090723Z 31002KT M06/M06 A303 RMK A01 T10551061  RH  096%=      5-min Rain = 0
KNH1 090724Z 33002KT M06/M06 A303 RMK A01 T10561062  RH  096%=      5-min Rain = 0
KNH1 090725Z 33003KT M06/M06 A303 RMK A01 T10561062  RH  096%=      5-min Rain = 0
KNH1 090726Z 33003KT M06/M06 A303 RMK A01 T10561062  RH  095%=      5-min Rain = 0
KNH1 090727Z 33004KT M06/M06 A303 RMK A01 T10561062  RH  096%=      5-min Rain = 0
KNH1 090728Z 34004KT M06/M06 A303 RMK A01 T10571063  RH  096%=      5-min Rain = 0
KNH1 090729Z 34004KT M06/M06 A303 RMK A01 T10571063  RH  096%=      5-min Rain = 0
KNH1 090730Z 34004KT M06/M06 A303 RMK A01 T10581064  RH  095%=      5-min Rain = 0
KNH1 090731Z 34004KT M06/M07 A303 RMK A01 T10591065  RH  095%=      5-min Rain = 0
KNH1 090732Z 34004KT M06/M07 A303 RMK A01 T10591066  RH  095%=      5-min Rain = 0
KNH1 090733Z 34004KT M06/M07 A303 RMK A01 T10601066  RH  095%=      5-min Rain = 0
KNH1 090734Z 34003KT M06/M07 A303 RMK A01 T10601067  RH  095%=      5-min Rain = 0
KNH1 090735Z 34004KT M06/M07 A303 RMK A01 T10601067  RH  095%=      5-min Rain = 0
KNH1 090736Z 34004KT M06/M07 A303 RMK A01 T10611068  RH  095%=      5-min Rain = 0
KNH1 090737Z 34004KT M06/M07 A303 RMK A01 T10621068  RH  095%=      5-min Rain = 0
KNH1 090738Z 34005KT M06/M07 A303 RMK A01 T10611068  RH  095%=      5-min Rain = 0
KNH1 090739Z 35004KT M06/M07 A303 RMK A01 T10621069  RH  095%=      5-min Rain = 0
KNH1 090740Z 36004KT M06/M07 A303 RMK A01 T10621068  RH  095%=      5-min Rain = 0
KNH1 090741Z 36004KT M06/M07 A303 RMK A01 T10621068  RH  095%=      5-min Rain = 0
KNH1 090742Z 36004KT M06/M07 A303 RMK A01 T10621069  RH  095%=      5-min Rain = 0
KNH1 090743Z 36004KT M06/M07 A303 RMK A01 T10621069  RH  095%=      5-min Rain = 0
KNH1 090744Z 00004KT M06/M07 A303 RMK A01 T10631069  RH  095%=      5-min Rain = 0
KNH1 090745Z 01004KT M06/M07 A303 RMK A01 T10621069  RH  095%=      5-min Rain = 0
KNH1 090746Z 01004KT M06/M07 A3029 RMK A01 T10621069  RH  095%=      5-min Rain = 0
KNH1 090747Z 01004KT M06/M07 A3029 RMK A01 T10621068  RH  095%=      5-min Rain = 0
KNH1 090748Z 01004KT M06/M07 A3029 RMK A01 T10611067  RH  095%=      5-min Rain = 0
KNH1 090749Z 00004KT M06/M07 A3029 RMK A01 T10601067  RH  095%=      5-min Rain = 0
KNH1 090750Z 00004KT M06/M07 A3029 RMK A01 T10591065  RH  096%=      5-min Rain = 0
KNH1 090751Z 01004KT M06/M07 A3029 RMK A01 T10591065  RH  096%=      5-min Rain = 0
KNH1 090752Z 01004KT M06/M06 A3029 RMK A01 T10591064  RH  096%=      5-min Rain = 0
KNH1 090753Z 01004KT M06/M06 A3029 RMK A01 T10581064  RH  096%=      5-min Rain = 0
KNH1 090754Z 01004KT M06/M06 A3029 RMK A01 T10581064  RH  096%=      5-min Rain = 0
KNH1 090755Z 01004KT M06/M06 A3029 RMK A01 T10581063  RH  096%=      5-min Rain = 0
KNH1 090756Z 01003KT M06/M06 A3029 RMK A01 T10571062  RH  096%=      5-min Rain = 0
KNH1 090757Z 01003KT M06/M06 A3029 RMK A01 T10561061  RH  096%=      5-min Rain = 0
KNH1 090758Z 01004KT M06/M06 A3029 RMK A01 T10551060  RH  096%=      5-min Rain = 0
KNH1 090759Z 00004KT M05/M06 A3029 RMK A01 T10541059  RH  096%=      5-min Rain = 0
KNH1 090800Z 36003KT M05/M06 A303 RMK A01 T10541059  RH  096%=      5-min Rain = 0
KNH1 090801Z 35003KT M05/M06 A303 RMK A01 T10541059  RH  096%=      5-min Rain = 0
KNH1 090802Z 35003KT M05/M06 A303 RMK A01 T10541060  RH  096%=      5-min Rain = 0
KNH1 090803Z 35003KT M06/M06 A303 RMK A01 T10551060  RH  096%=      5-min Rain = 0
KNH1 090804Z 35003KT M06/M06 A303 RMK A01 T10551060  RH  096%=      5-min Rain = 0
KNH1 090805Z 36003KT M06/M06 A303 RMK A01 T10551060  RH  096%=      5-min Rain = 0
KNH1 090806Z 36003KT M06/M06 A303 RMK A01 T10551061  RH  096%=      5-min Rain = 0
KNH1 090807Z 00003KT M06/M06 A303 RMK A01 T10561062  RH  096%=      5-min Rain = 0
KNH1 090808Z 35003KT M06/M06 A303 RMK A01 T10571063  RH  096%=      5-min Rain = 0
KNH1 090809Z 34003KT M06/M06 A303 RMK A01 T10571063  RH  095%=      5-min Rain = 0
KNH1 090810Z 34003KT M06/M06 A303 RMK A01 T10571063  RH  095%=      5-min Rain = 0
KNH1 090811Z 33004KT M06/M06 A303 RMK A01 T10561061  RH  096%=      5-min Rain = 0
KNH1 090812Z 33003KT M06/M06 A303 RMK A01 T10551061  RH  096%=      5-min Rain = 0
KNH1 090813Z 32003KT M06/M06 A303 RMK A01 T10551061  RH  096%=      5-min Rain = 0
KNH1 090814Z 30002KT M06/M06 A303 RMK A01 T10561062  RH  096%=      5-min Rain = 0
KNH1 090815Z 31002KT M06/M06 A303 RMK A01 T10571063  RH  096%=      5-min Rain = 0
KNH1 090816Z 33002KT M06/M06 A303 RMK A01 T10581064  RH  095%=      5-min Rain = 0
KNH1 090817Z 31003KT M06/M07 A303 RMK A01 T10581065  RH  095%=      5-min Rain = 0
KNH1 090818Z 32003KT M06/M07 A303 RMK A01 T10591066  RH  095%=      5-min Rain = 0
KNH1 090819Z 34003KT M06/M07 A303 RMK A01 T10601067  RH  095%=      5-min Rain = 0
KNH1 090820Z 33003KT M06/M07 A303 RMK A01 T10611068  RH  095%=      5-min Rain = 0
KNH1 090821Z 33003KT M06/M07 A303 RMK A01 T10621069  RH  095%=      5-min Rain = 0
KNH1 090822Z 34003KT M06/M07 A303 RMK A01 T10621069  RH  095%=      5-min Rain = 0
KNH1 090823Z 34003KT M06/M07 A303 RMK A01 T10621069  RH  095%=      5-min Rain = 0
KNH1 090824Z 33003KT M06/M07 A303 RMK A01 T10621069  RH  095%=      5-min Rain = 0
KNH1 090825Z 33004KT M06/M07 A303 RMK A01 T10621069  RH  095%=      5-min Rain = 0
KNH1 090826Z 33004KT M06/M07 A303 RMK A01 T10611068  RH  095%=      5-min Rain = 0
KNH1 090827Z 33004KT M06/M07 A303 RMK A01 T10611068  RH  095%=      5-min Rain = 0
KNH1 090828Z 33004KT M06/M07 A303 RMK A01 T10611067  RH  095%=      5-min Rain = 0
KNH1 090829Z 33005KT M06/M07 A303 RMK A01 T10601067  RH  095%=      5-min Rain = 0
KNH1 090830Z 34004KT M06/M07 A303 RMK A01 T10601067  RH  095%=      5-min Rain = 0
KNH1 090831Z 34005KT M06/M07 A303 RMK A01 T10601067  RH  095%=      5-min Rain = 0
KNH1 090832Z 34005KT M06/M07 A303 RMK A01 T10611067  RH  095%=      5-min Rain = 0
KNH1 090833Z 34005KT M06/M07 A303 RMK A01 T10611068  RH  095%=      5-min Rain = 0
KNH1 090834Z 34005KT M06/M07 A303 RMK A01 T10611068  RH  095%=      5-min Rain = 0
KNH1 090835Z 34005KT M06/M07 A303 RMK A01 T10611068  RH  095%=      5-min Rain = 0
KNH1 090836Z 34005KT M06/M07 A303 RMK A01 T10621068  RH  095%=      5-min Rain = 0
KNH1 090837Z 34004KT M06/M07 A303 RMK A01 T10621069  RH  095%=      5-min Rain = 0
KNH1 090838Z 35004KT M06/M07 A303 RMK A01 T10621069  RH  095%=      5-min Rain = 0
KNH1 090839Z 35004KT M06/M07 A303 RMK A01 T10631070  RH  095%=      5-min Rain = 0
KNH1 090840Z 35004KT M06/M07 A303 RMK A01 T10631070  RH  095%=      5-min Rain = 0
KNH1 090841Z 36004KT M06/M07 A303 RMK A01 T10641071  RH  095%=      5-min Rain = 0
KNH1 090842Z 00004KT M07/M07 A303 RMK A01 T10651072  RH  095%=      5-min Rain = 0
KNH1 090843Z 00004KT M07/M07 A3029 RMK A01 T10651072  RH  095%=      5-min Rain = 0
KNH1 090844Z 01004KT M07/M07 A3029 RMK A01 T10651073  RH  095%=      5-min Rain = 0
KNH1 090845Z 00004KT M07/M07 A3029 RMK A01 T10651073  RH  095%=      5-min Rain = 0
KNH1 090846Z 01004KT M07/M07 A3029 RMK A01 T10651072  RH  095%=      5-min Rain = 0
KNH1 090847Z 01004KT M06/M07 A3029 RMK A01 T10641071  RH  095%=      5-min Rain = 0
KNH1 090848Z 01004KT M06/M07 A3029 RMK A01 T10631069  RH  095%=      5-min Rain = 0
KNH1 090849Z 01004KT M06/M07 A3029 RMK A01 T10611067  RH  096%=      5-min Rain = 0
KNH1 090850Z 01004KT M06/M07 A3029 RMK A01 T10601066  RH  096%=      5-min Rain = 0
KNH1 090851Z 01003KT M06/M07 A3029 RMK A01 T10601066  RH  096%=      5-min Rain = 0
KNH1 090852Z 02004KT M06/M06 A3029 RMK A01 T10581064  RH  096%=      5-min Rain = 0
KNH1 090853Z 02004KT M06/M06 A3029 RMK A01 T10571062  RH  096%=      5-min Rain = 0
KNH1 090854Z 02004KT M06/M06 A3029 RMK A01 T10551061  RH  096%=      5-min Rain = 0
KNH1 090855Z 03003KT M05/M06 A3029 RMK A01 T10541060  RH  096%=      5-min Rain = 0
KNH1 090856Z 02004KT M05/M06 A3029 RMK A01 T10531058  RH  096%=      5-min Rain = 0
KNH1 090857Z 02004KT M05/M06 A3029 RMK A01 T10521058  RH  096%=      5-min Rain = 0
KNH1 090858Z 02004KT M05/M06 A3029 RMK A01 T10521057  RH  096%=      5-min Rain = 0
KNH1 090859Z 02005KT M05/M06 A3029 RMK A01 T10521058  RH  096%=      5-min Rain = 0
KNH1 090900Z 02005KT M05/M06 A3029 RMK A01 T10531058  RH  096%=      5-min Rain = 0
KNH1 090901Z 03005KT M05/M06 A3029 RMK A01 T10531059  RH  096%=      5-min Rain = 0
KNH1 090902Z 03004KT M05/M06 A3029 RMK A01 T10531059  RH  096%=      5-min Rain = 0
KNH1 090903Z 03005KT M05/M06 A3029 RMK A01 T10531059  RH  096%=      5-min Rain = 0
KNH1 090904Z 03005KT M05/M06 A3029 RMK A01 T10531059  RH  096%=      5-min Rain = 0
KNH1 090905Z 03005KT M05/M06 A3029 RMK A01 T10531059  RH  096%=      5-min Rain = 0
KNH1 090906Z 02006KT M05/M06 A3029 RMK A01 T10531059  RH  096%=      5-min Rain = 0
KNH1 090907Z 02005KT M05/M06 A3029 RMK A01 T10511056  RH  096%=      5-min Rain = 0
KNH1 090908Z 02005KT M05/M06 A3029 RMK A01 T10501055  RH  096%=      5-min Rain = 0
KNH1 090909Z 02004KT M05/M06 A3029 RMK A01 T10491055  RH  096%=      5-min Rain = 0
KNH1 090910Z 01004KT M05/M05 A3029 RMK A01 T10491054  RH  096%=      5-min Rain = 0
KNH1 090911Z 01004KT M05/M05 A3029 RMK A01 T10491054  RH  096%=      5-min Rain = 0
KNH1 090912Z 00004KT M05/M06 A3029 RMK A01 T10491055  RH  096%=      5-min Rain = 0
KNH1 090913Z 00003KT M05/M06 A3029 RMK A01 T10501056  RH  096%=      5-min Rain = 0
KNH1 090914Z 35003KT M05/M06 A3029 RMK A01 T10521058  RH  096%=      5-min Rain = 0
KNH1 090915Z 35004KT M05/M06 A3029 RMK A01 T10531060  RH  095%=      5-min Rain = 0
KNH1 090916Z 35003KT M06/M06 A3029 RMK A01 T10551061  RH  095%=      5-min Rain = 0
KNH1 090917Z 35003KT M06/M06 A3029 RMK A01 T10561063  RH  095%=      5-min Rain = 0
KNH1 090918Z 35004KT M06/M06 A3029 RMK A01 T10571064  RH  095%=      5-min Rain = 0
KNH1 090919Z 34004KT M06/M07 A3029 RMK A01 T10581065  RH  095%=      5-min Rain = 0
KNH1 090920Z 34004KT M06/M07 A3029 RMK A01 T10601067  RH  095%=      5-min Rain = 0
KNH1 090921Z 35004KT M06/M07 A3029 RMK A01 T10601067  RH  095%=      5-min Rain = 0
KNH1 090922Z 34004KT M06/M07 A3029 RMK A01 T10611068  RH  095%=      5-min Rain = 0
KNH1 090923Z 34003KT M06/M07 A3029 RMK A01 T10611069  RH  095%=      5-min Rain = 0
KNH1 090924Z 34004KT M06/M07 A3029 RMK A01 T10621069  RH  095%=      5-min Rain = 0
KNH1 090925Z 34004KT M06/M07 A3029 RMK A01 T10621070  RH  095%=      5-min Rain = 0
KNH1 090926Z 33004KT M06/M07 A3029 RMK A01 T10621069  RH  095%=      5-min Rain = 0
KNH1 090927Z 32003KT M06/M07 A3029 RMK A01 T10631070  RH  095%=      5-min Rain = 0
KNH1 090928Z 32003KT M06/M07 A303 RMK A01 T10621069  RH  095%=      5-min Rain = 0
KNH1 090929Z 32003KT M06/M07 A303 RMK A01 T10621069  RH  095%=      5-min Rain = 0
KNH1 090930Z 33003KT M06/M07 A303 RMK A01 T10631070  RH  095%=      5-min Rain = 0
KNH1 090931Z 33004KT M06/M07 A303 RMK A01 T10641071  RH  095%=      5-min Rain = 0
KNH1 090932Z 33004KT M06/M07 A303 RMK A01 T10641072  RH  095%=      5-min Rain = 0
KNH1 090933Z 33005KT M07/M07 A303 RMK A01 T10651072  RH  095%=      5-min Rain = 0
KNH1 090934Z 32004KT M07/M07 A303 RMK A01 T10651073  RH  095%=      5-min Rain = 0
KNH1 090935Z 33004KT M07/M07 A303 RMK A01 T10651073  RH  095%=      5-min Rain = 0
KNH1 090936Z 33003KT M07/M07 A3029 RMK A01 T10661073  RH  095%=      5-min Rain = 0
KNH1 090937Z 33003KT M07/M07 A303 RMK A01 T10661074  RH  095%=      5-min Rain = 0
KNH1 090938Z 32003KT M07/M07 A303 RMK A01 T10661073  RH  095%=      5-min Rain = 0
KNH1 090939Z 32003KT M07/M07 A303 RMK A01 T10661074  RH  095%=      5-min Rain = 0
KNH1 090940Z 31003KT M07/M07 A303 RMK A01 T10671074  RH  094%=      5-min Rain = 0
KNH1 090941Z 32003KT M07/M07 A303 RMK A01 T10671074  RH  094%=      5-min Rain = 0
KNH1 090942Z 32003KT M07/M08 A303 RMK A01 T10671075  RH  094%=      5-min Rain = 0
KNH1 090943Z 32003KT M07/M08 A303 RMK A01 T10681076  RH  094%=      5-min Rain = 0
KNH1 090944Z 32003KT M07/M08 A303 RMK A01 T10681076  RH  094%=      5-min Rain = 0
KNH1 090945Z 32003KT M07/M08 A303 RMK A01 T10691077  RH  094%=      5-min Rain = 0
KNH1 090946Z 33003KT M07/M08 A303 RMK A01 T10691077  RH  094%=      5-min Rain = 0
KNH1 090947Z 33004KT M07/M08 A303 RMK A01 T10701077  RH  094%=      5-min Rain = 0
KNH1 090948Z 32003KT M07/M08 A303 RMK A01 T10701078  RH  094%=      5-min Rain = 0
KNH1 090949Z 32002KT M07/M08 A303 RMK A01 T10701077  RH  094%=      5-min Rain = 0
KNH1 090950Z 33004KT M07/M08 A303 RMK A01 T10701078  RH  094%=      5-min Rain = 0
KNH1 090951Z 33004KT M07/M08 A303 RMK A01 T10701078  RH  094%=      5-min Rain = 0
KNH1 090952Z 32004KT M07/M08 A303 RMK A01 T10711079  RH  094%=      5-min Rain = 0
KNH1 090953Z 32004KT M07/M08 A303 RMK A01 T10711079  RH  094%=      5-min Rain = 0
KNH1 090954Z 32003KT M07/M08 A303 RMK A01 T10721080  RH  094%=      5-min Rain = 0
KNH1 090955Z 32003KT M07/M08 A303 RMK A01 T10721081  RH  094%=      5-min Rain = 0
KNH1 090956Z 32003KT M07/M08 A303 RMK A01 T10731081  RH  094%=      5-min Rain = 0
KNH1 090957Z 32003KT M07/M08 A303 RMK A01 T10731082  RH  094%=      5-min Rain = 0
KNH1 090958Z 32003KT M07/M08 A3029 RMK A01 T10741082  RH  094%=      5-min Rain = 0
KNH1 090959Z 32004KT M07/M08 A3029 RMK A01 T10741083  RH  094%=      5-min Rain = 0
KNH1 091000Z 32005KT M08/M08 A3029 RMK A01 T10751083  RH  094%=      5-min Rain = 0
KNH1 091001Z 32005KT M07/M08 A3029 RMK A01 T10741083  RH  094%=      5-min Rain = 0
KNH1 091002Z 32005KT M08/M08 A3029 RMK A01 T10751083  RH  094%=      5-min Rain = 0
KNH1 091003Z 32004KT M08/M08 A3029 RMK A01 T10751083  RH  094%=      5-min Rain = 0
KNH1 091004Z 33004KT M08/M08 A3029 RMK A01 T10751084  RH  094%=      5-min Rain = 0
KNH1 091005Z 33005KT M08/M08 A3029 RMK A01 T10761084  RH  094%=      5-min Rain = 0
KNH1 091006Z 33005KT M08/M08 A3029 RMK A01 T10761084  RH  094%=      5-min Rain = 0
KNH1 091007Z 33004KT M08/M08 A3029 RMK A01 T10761084  RH  094%=      5-min Rain = 0
KNH1 091008Z 33004KT M08/M08 A3029 RMK A01 T10761084  RH  094%=      5-min Rain = 0
KNH1 091009Z 32004KT M08/M08 A3029 RMK A01 T10761084  RH  094%=      5-min Rain = 0
KNH1 091010Z 32003KT M08/M09 A3029 RMK A01 T10761085  RH  094%=      5-min Rain = 0
KNH1 091011Z 32005KT M08/M09 A3029 RMK A01 T10761085  RH  094%=      5-min Rain = 0
KNH1 091012Z 32005KT M08/M09 A3029 RMK A01 T10771085  RH  094%=      5-min Rain = 0
KNH1 091013Z 33005KT M08/M09 A3029 RMK A01 T10771085  RH  094%=      5-min Rain = 0
KNH1 091014Z 32005KT M08/M09 A3029 RMK A01 T10771085  RH  094%=      5-min Rain = 0
KNH1 091015Z 33005KT M08/M09 A3029 RMK A01 T10761085  RH  094%=      5-min Rain = 0
KNH1 091016Z 33005KT M08/M09 A3029 RMK A01 T10771085  RH  094%=      5-min Rain = 0
KNH1 091017Z 33004KT M08/M09 A3029 RMK A01 T10771085  RH  094%=      5-min Rain = 0
KNH1 091018Z 33005KT M08/M09 A3029 RMK A01 T10761085  RH  094%=      5-min Rain = 0
KNH1 091019Z 33005KT M08/M09 A3029 RMK A01 T10771085  RH  094%=      5-min Rain = 0
KNH1 091020Z 33004KT M08/M09 A3029 RMK A01 T10771085  RH  094%=      5-min Rain = 0
KNH1 091021Z 32004KT M08/M09 A3029 RMK A01 T10771085  RH  094%=      5-min Rain = 0
KNH1 091022Z 33004KT M08/M09 A3029 RMK A01 T10761085  RH  094%=      5-min Rain = 0
KNH1 091023Z 34005KT M08/M09 A3029 RMK A01 T10761085  RH  094%=      5-min Rain = 0
KNH1 091024Z 32004KT M08/M08 A3029 RMK A01 T10761084  RH  094%=      5-min Rain = 0
KNH1 091025Z 33004KT M08/M08 A3029 RMK A01 T10761084  RH  094%=      5-min Rain = 0
KNH1 091026Z 33004KT M08/M08 A303 RMK A01 T10761084  RH  094%=      5-min Rain = 0
KNH1 091027Z 33004KT M08/M08 A3029 RMK A01 T10751084  RH  094%=      5-min Rain = 0
KNH1 091028Z 32004KT M08/M08 A303 RMK A01 T10761084  RH  094%=      5-min Rain = 0
KNH1 091029Z 32004KT M08/M08 A303 RMK A01 T10761084  RH  094%=      5-min Rain = 0
KNH1 091030Z 33004KT M08/M09 A303 RMK A01 T10761085  RH  094%=      5-min Rain = 0
KNH1 091031Z 33005KT M08/M09 A303 RMK A01 T10761085  RH  094%=      5-min Rain = 0
KNH1 091032Z 33004KT M08/M09 A303 RMK A01 T10761085  RH  094%=      5-min Rain = 0
KNH1 091033Z 34005KT M08/M09 A303 RMK A01 T10771085  RH  094%=      5-min Rain = 0
KNH1 091034Z 34005KT M08/M09 A303 RMK A01 T10771085  RH  094%=      5-min Rain = 0
KNH1 091035Z 33005KT M08/M09 A303 RMK A01 T10761085  RH  094%=      5-min Rain = 0
KNH1 091036Z 34004KT M08/M09 A303 RMK A01 T10761085  RH  094%=      5-min Rain = 0
KNH1 091037Z 34005KT M08/M09 A303 RMK A01 T10761085  RH  094%=      5-min Rain = 0
KNH1 091038Z 34005KT M08/M08 A303 RMK A01 T10761084  RH  094%=      5-min Rain = 0
KNH1 091039Z 34006KT M08/M08 A303 RMK A01 T10761084  RH  094%=      5-min Rain = 0
KNH1 091040Z 34005KT M08/M08 A303 RMK A01 T10751083  RH  094%=      5-min Rain = 0
KNH1 091041Z 34006KT M08/M08 A303 RMK A01 T10751083  RH  094%=      5-min Rain = 0
KNH1 091042Z 34005KT M07/M08 A303 RMK A01 T10741082  RH  094%=      5-min Rain = 0
KNH1 091043Z 33005KT M07/M08 A303 RMK A01 T10741082  RH  094%=      5-min Rain = 0
KNH1 091044Z 33005KT M08/M08 A303 RMK A01 T10751083  RH  094%=      5-min Rain = 0
KNH1 091045Z 33004KT M07/M08 A303 RMK A01 T10741082  RH  094%=      5-min Rain = 0
KNH1 091046Z 33005KT M07/M08 A303 RMK A01 T10741082  RH  094%=      5-min Rain = 0
KNH1 091047Z 33005KT M07/M08 A303 RMK A01 T10731081  RH  094%=      5-min Rain = 0
KNH1 091048Z 33005KT M07/M08 A303 RMK A01 T10721080  RH  094%=      5-min Rain = 0
KNH1 091049Z 33005KT M07/M08 A303 RMK A01 T10721079  RH  094%=      5-min Rain = 0
KNH1 091050Z 33004KT M07/M08 A303 RMK A01 T10711079  RH  094%=      5-min Rain = 0
KNH1 091051Z 32004KT M07/M08 A303 RMK A01 T10711079  RH  094%=      5-min Rain = 0
KNH1 091052Z 33004KT M07/M08 A303 RMK A01 T10711079  RH  094%=      5-min Rain = 0
KNH1 091053Z 33004KT M07/M08 A303 RMK A01 T10711079  RH  094%=      5-min Rain = 0
KNH1 091054Z 33004KT M07/M08 A303 RMK A01 T10711079  RH  094%=      5-min Rain = 0
KNH1 091055Z 33004KT M07/M08 A303 RMK A01 T10711078  RH  094%=      5-min Rain = 0
KNH1 091056Z 34004KT M07/M08 A303 RMK A01 T10701078  RH  094%=      5-min Rain = 0
KNH1 091057Z 34004KT M07/M08 A303 RMK A01 T10701078  RH  094%=      5-min Rain = 0
KNH1 091058Z 34004KT M07/M08 A303 RMK A01 T10701078  RH  094%=      5-min Rain = 0
KNH1 091059Z 35004KT M07/M08 A303 RMK A01 T10701078  RH  094%=      5-min Rain = 0
KNH1 091100Z 35003KT M07/M08 A303 RMK A01 T10701078  RH  094%=      5-min Rain = 0
KNH1 091101Z 34004KT M07/M08 A303 RMK A01 T10701078  RH  094%=      5-min Rain = 0
KNH1 091102Z 34004KT M07/M08 A303 RMK A01 T10701078  RH  094%=      5-min Rain = 0
KNH1 091103Z 34004KT M07/M08 A303 RMK A01 T10701078  RH  094%=      5-min Rain = 0
KNH1 091104Z 34004KT M07/M08 A303 RMK A01 T10701078  RH  094%=      5-min Rain = 0
KNH1 091105Z 34004KT M07/M08 A303 RMK A01 T10701078  RH  094%=      5-min Rain = 0
KNH1 091106Z 34004KT M07/M08 A303 RMK A01 T10701078  RH  094%=      5-min Rain = 0
KNH1 091107Z 33004KT M07/M08 A303 RMK A01 T10691077  RH  095%=      5-min Rain = 0
KNH1 091108Z 33004KT M07/M08 A303 RMK A01 T10691076  RH  095%=      5-min Rain = 0
KNH1 091109Z 32003KT M07/M08 A303 RMK A01 T10681075  RH  095%=      5-min Rain = 0
KNH1 091110Z 32002KT M07/M08 A303 RMK A01 T10681075  RH  095%=      5-min Rain = 0
KNH1 091111Z 32002KT M07/M08 A303 RMK A01 T10671075  RH  095%=      5-min Rain = 0
KNH1 091112Z 32003KT M07/M08 A303 RMK A01 T10681075  RH  095%=      5-min Rain = 0
KNH1 091113Z 31002KT M07/M08 A303 RMK A01 T10681075  RH  095%=      5-min Rain = 0
KNH1 091114Z 31003KT M07/M08 A3031 RMK A01 T10671075  RH  095%=      5-min Rain = 0
KNH1 091115Z 31003KT M07/M08 A3031 RMK A01 T10681075  RH  094%=      5-min Rain = 0
KNH1 091116Z 32003KT M07/M08 A3031 RMK A01 T10681076  RH  094%=      5-min Rain = 0
KNH1 091117Z 32003KT M07/M08 A303 RMK A01 T10691077  RH  094%=      5-min Rain = 0
KNH1 091118Z 33003KT M07/M08 A303 RMK A01 T10701077  RH  094%=      5-min Rain = 0
KNH1 091119Z 32004KT M07/M08 A303 RMK A01 T10701078  RH  094%=      5-min Rain = 0
KNH1 091120Z 32004KT M07/M08 A303 RMK A01 T10701078  RH  094%=      5-min Rain = 0
KNH1 091121Z 33004KT M07/M08 A303 RMK A01 T10701078  RH  094%=      5-min Rain = 0
KNH1 091122Z 33004KT M07/M08 A303 RMK A01 T10701078  RH  094%=      5-min Rain = 0
KNH1 091123Z 33004KT M07/M08 A303 RMK A01 T10701078  RH  094%=      5-min Rain = 0
KNH1 091124Z 33004KT M07/M08 A303 RMK A01 T10701078  RH  094%=      5-min Rain = 0
KNH1 091125Z 33005KT M07/M08 A303 RMK A01 T10701078  RH  094%=      5-min Rain = 0
KNH1 091126Z 33004KT M07/M08 A303 RMK A01 T10701078  RH  094%=      5-min Rain = 0
KNH1 091127Z 33004KT M07/M08 A303 RMK A01 T10701078  RH  094%=      5-min Rain = 0
KNH1 091128Z 33004KT M07/M08 A303 RMK A01 T10701078  RH  094%=      5-min Rain = 0
KNH1 091129Z 33004KT M07/M08 A3031 RMK A01 T10701078  RH  094%=      5-min Rain = 0
KNH1 091130Z 33004KT M07/M08 A3031 RMK A01 T10701078  RH  094%=      5-min Rain = 0
KNH1 091131Z 33004KT M07/M08 A3031 RMK A01 T10701078  RH  094%=      5-min Rain = 0
KNH1 091132Z 34004KT M07/M08 A3031 RMK A01 T10701078  RH  094%=      5-min Rain = 0
KNH1 091133Z 33004KT M07/M08 A3031 RMK A01 T10701078  RH  094%=      5-min Rain = 0
KNH1 091134Z 33004KT M07/M08 A3031 RMK A01 T10701078  RH  094%=      5-min Rain = 0
KNH1 091135Z 33004KT M07/M08 A3031 RMK A01 T10701078  RH  094%=      5-min Rain = 0
KNH1 091136Z 33003KT M07/M08 A3031 RMK A01 T10701078  RH  094%=      5-min Rain = 0
KNH1 091137Z 33004KT M07/M08 A3031 RMK A01 T10701078  RH  094%=      5-min Rain = 0
KNH1 091138Z 33004KT M07/M08 A3031 RMK A01 T10701078  RH  094%=      5-min Rain = 0
KNH1 091139Z 34004KT M07/M08 A3031 RMK A01 T10701078  RH  094%=      5-min Rain = 0
KNH1 091140Z 33004KT M07/M08 A3031 RMK A01 T10701078  RH  094%=      5-min Rain = 0
KNH1 091141Z 33003KT M07/M08 A3031 RMK A01 T10701078  RH  094%=      5-min Rain = 0
KNH1 091142Z 33004KT M07/M08 A3031 RMK A01 T10701078  RH  094%=      5-min Rain = 0
KNH1 091143Z 34004KT M07/M08 A3031 RMK A01 T10701077  RH  094%=      5-min Rain = 0
KNH1 091144Z 34004KT M07/M08 A3031 RMK A01 T10701077  RH  094%=      5-min Rain = 0
KNH1 091145Z 34004KT M07/M08 A3031 RMK A01 T10691077  RH  094%=      5-min Rain = 0
KNH1 091146Z 33004KT M07/M08 A3031 RMK A01 T10691077  RH  094%=      5-min Rain = 0
KNH1 091147Z 33004KT M07/M08 A3031 RMK A01 T10691077  RH  094%=      5-min Rain = 0
KNH1 091148Z 33004KT M07/M08 A3031 RMK A01 T10691077  RH  094%=      5-min Rain = 0
KNH1 091149Z 33005KT M07/M08 A3031 RMK A01 T10691077  RH  094%=      5-min Rain = 0
KNH1 091150Z 33005KT M07/M08 A3031 RMK A01 T10691077  RH  094%=      5-min Rain = 0
KNH1 091151Z 34004KT M07/M08 A3031 RMK A01 T10691077  RH  094%=      5-min Rain = 0
KNH1 091152Z 33004KT M07/M08 A3031 RMK A01 T10691077  RH  094%=      5-min Rain = 0
KNH1 091153Z 33004KT M07/M08 A3031 RMK A01 T10691076  RH  094%=      5-min Rain = 0
KNH1 091154Z 33004KT M07/M08 A3031 RMK A01 T10691077  RH  094%=      5-min Rain = 0
KNH1 091155Z 33004KT M07/M08 A3031 RMK A01 T10691076  RH  094%=      5-min Rain = 0
KNH1 091156Z 33004KT M07/M08 A3031 RMK A01 T10691077  RH  094%=      5-min Rain = 0
KNH1 091157Z 33004KT M07/M08 A3031 RMK A01 T10691077  RH  094%=      5-min Rain = 0
KNH1 091158Z 33004KT M07/M08 A3032 RMK A01 T10691076  RH  094%=      5-min Rain = 0
KNH1 091159Z 34004KT M07/M08 A3032 RMK A01 T10691076  RH  094%=      5-min Rain = 0
KNH1 091200Z 33004KT M07/M08 A3032 RMK A01 T10691077  RH  094%=      5-min Rain = 0
KNH1 091201Z 33004KT M07/M08 A3032 RMK A01 T10691077  RH  094%=      5-min Rain = 0
KNH1 091202Z 34004KT M07/M08 A3032 RMK A01 T10691077  RH  094%=      5-min Rain = 0
KNH1 091203Z 33004KT M07/M08 A3032 RMK A01 T10691077  RH  094%=      5-min Rain = 0
KNH1 091204Z 34004KT M07/M08 A3032 RMK A01 T10691077  RH  094%=      5-min Rain = 0
KNH1 091205Z 33004KT M07/M08 A3032 RMK A01 T10691077  RH  094%=      5-min Rain = 0
KNH1 091206Z 33004KT M07/M08 A3032 RMK A01 T10691077  RH  094%=      5-min Rain = 0
KNH1 091207Z 33003KT M07/M08 A3032 RMK A01 T10691077  RH  094%=      5-min Rain = 0
KNH1 091208Z 33004KT M07/M08 A3032 RMK A01 T10691077  RH  094%=      5-min Rain = 0
KNH1 091209Z 33004KT M07/M08 A3032 RMK A01 T10691077  RH  094%=      5-min Rain = 0
KNH1 091210Z 34004KT M07/M08 A3032 RMK A01 T10691077  RH  094%=      5-min Rain = 0
KNH1 091211Z 34004KT M07/M08 A3032 RMK A01 T10691077  RH  094%=      5-min Rain = 0
KNH1 091212Z 34004KT M07/M08 A3032 RMK A01 T10691077  RH  094%=      5-min Rain = 0
KNH1 091213Z 34004KT M07/M08 A3032 RMK A01 T10691077  RH  094%=      5-min Rain = 0
KNH1 091214Z 33004KT M07/M08 A3032 RMK A01 T10691077  RH  094%=      5-min Rain = 0
KNH1 091215Z 33004KT M07/M08 A3032 RMK A01 T10691076  RH  094%=      5-min Rain = 0
KNH1 091216Z 33004KT M07/M08 A3032 RMK A01 T10691077  RH  094%=      5-min Rain = 0
KNH1 091217Z 34004KT M07/M08 A3032 RMK A01 T10691077  RH  094%=      5-min Rain = 0
KNH1 091218Z 34004KT M07/M08 A3032 RMK A01 T10691076  RH  094%=      5-min Rain = 0
KNH1 091219Z 33004KT M07/M08 A3032 RMK A01 T10691077  RH  094%=      5-min Rain = 0
KNH1 091220Z 33004KT M07/M08 A3032 RMK A01 T10691076  RH  094%=      5-min Rain = 0
KNH1 091221Z 34004KT M07/M08 A3032 RMK A01 T10691077  RH  094%=      5-min Rain = 0
KNH1 091222Z 33004KT M07/M08 A3032 RMK A01 T10691076  RH  094%=      5-min Rain = 0
KNH1 091223Z 34004KT M07/M08 A3032 RMK A01 T10691076  RH  094%=      5-min Rain = 0
KNH1 091224Z 33004KT M07/M08 A3032 RMK A01 T10681076  RH  094%=      5-min Rain = 0
KNH1 091225Z 33004KT M07/M08 A3032 RMK A01 T10681076  RH  094%=      5-min Rain = 0
KNH1 091226Z 33004KT M07/M08 A3032 RMK A01 T10681075  RH  095%=      5-min Rain = 0
KNH1 091227Z 33004KT M07/M08 A3033 RMK A01 T10681075  RH  095%=      5-min Rain = 0
KNH1 091228Z 33004KT M07/M08 A3033 RMK A01 T10681075  RH  095%=      5-min Rain = 0
KNH1 091229Z 33004KT M07/M08 A3033 RMK A01 T10671075  RH  094%=      5-min Rain = 0
KNH1 091230Z 33004KT M07/M08 A3033 RMK A01 T10681075  RH  094%=      5-min Rain = 0
KNH1 091231Z 33003KT M07/M08 A3033 RMK A01 T10681075  RH  094%=      5-min Rain = 0
KNH1 091232Z 32003KT M07/M08 A3033 RMK A01 T10681075  RH  094%=      5-min Rain = 0
KNH1 091233Z 32003KT M07/M08 A3033 RMK A01 T10671075  RH  094%=      5-min Rain = 0
KNH1 091234Z 32003KT M07/M08 A3033 RMK A01 T10681075  RH  094%=      5-min Rain = 0
KNH1 091235Z 32003KT M07/M08 A3033 RMK A01 T10681075  RH  094%=      5-min Rain = 0
KNH1 091236Z 32003KT M07/M08 A3033 RMK A01 T10681075  RH  094%=      5-min Rain = 0
KNH1 091237Z 33004KT M07/M08 A3033 RMK A01 T10671075  RH  094%=      5-min Rain = 0
KNH1 091238Z 33004KT M07/M08 A3033 RMK A01 T10681075  RH  094%=      5-min Rain = 0
KNH1 091239Z 34004KT M07/M08 A3033 RMK A01 T10681075  RH  094%=      5-min Rain = 0
KNH1 091240Z 34004KT M07/M08 A3033 RMK A01 T10681075  RH  094%=      5-min Rain = 0
KNH1 091241Z 34004KT M07/M08 A3033 RMK A01 T10681075  RH  094%=      5-min Rain = 0
KNH1 091242Z 33004KT M07/M08 A3033 RMK A01 T10671075  RH  094%=      5-min Rain = 0
KNH1 091243Z 34004KT M07/M08 A3033 RMK A01 T10681075  RH  094%=      5-min Rain = 0
KNH1 091244Z 34004KT M07/M08 A3033 RMK A01 T10681076  RH  094%=      5-min Rain = 0
KNH1 091245Z 34004KT M07/M08 A3033 RMK A01 T10681076  RH  094%=      5-min Rain = 0
KNH1 091246Z 33004KT M07/M08 A3033 RMK A01 T10691077  RH  094%=      5-min Rain = 0
KNH1 091247Z 33003KT M07/M08 A3033 RMK A01 T10691077  RH  094%=      5-min Rain = 0
KNH1 091248Z 33004KT M07/M08 A3033 RMK A01 T10691077  RH  094%=      5-min Rain = 0
KNH1 091249Z 33003KT M07/M08 A3033 RMK A01 T10691077  RH  094%=      5-min Rain = 0
KNH1 091250Z 33004KT M07/M08 A3033 RMK A01 T10691076  RH  094%=      5-min Rain = 0
KNH1 091251Z 34003KT M07/M08 A3033 RMK A01 T10691077  RH  094%=      5-min Rain = 0
KNH1 091252Z 34003KT M07/M08 A3033 RMK A01 T10691076  RH  094%=      5-min Rain = 0
KNH1 091253Z 33004KT M07/M08 A3033 RMK A01 T10691077  RH  094%=      5-min Rain = 0
KNH1 091254Z 33004KT M07/M08 A3033 RMK A01 T10691077  RH  094%=      5-min Rain = 0
KNH1 091255Z 33004KT M07/M08 A3033 RMK A01 T10691076  RH  094%=      5-min Rain = 0
KNH1 091256Z 33003KT M07/M08 A3033 RMK A01 T10691077  RH  094%=      5-min Rain = 0
KNH1 091257Z 33004KT M07/M08 A3033 RMK A01 T10691077  RH  094%=      5-min Rain = 0
KNH1 091258Z 33004KT M07/M08 A3033 RMK A01 T10691077  RH  094%=      5-min Rain = 0
KNH1 091259Z 33004KT M07/M08 A3033 RMK A01 T10691076  RH  094%=      5-min Rain = 0
KNH1 091300Z 34004KT M07/M08 A3033 RMK A01 T10691077  RH  094%=      5-min Rain = 0
KNH1 091301Z 34004KT M07/M08 A3033 RMK A01 T10691077  RH  094%=      5-min Rain = 0
KNH1 091302Z 34004KT M07/M08 A3033 RMK A01 T10701078  RH  094%=      5-min Rain = 0
KNH1 091303Z 33004KT M07/M08 A3033 RMK A01 T10701078  RH  094%=      5-min Rain = 0
KNH1 091304Z 33003KT M07/M08 A3033 RMK A01 T10701078  RH  094%=      5-min Rain = 0
KNH1 091305Z 33003KT M07/M08 A3033 RMK A01 T10701078  RH  094%=      5-min Rain = 0
KNH1 091306Z 33003KT M07/M08 A3033 RMK A01 T10711079  RH  094%=      5-min Rain = 0
KNH1 091307Z 33003KT M07/M08 A3033 RMK A01 T10711079  RH  094%=      5-min Rain = 0
KNH1 091308Z 33003KT M07/M08 A3034 RMK A01 T10701078  RH  094%=      5-min Rain = 0
KNH1 091309Z 33004KT M07/M08 A3034 RMK A01 T10701078  RH  094%=      5-min Rain = 0
KNH1 091310Z 33003KT M07/M08 A3034 RMK A01 T10701077  RH  094%=      5-min Rain = 0
KNH1 091311Z 33003KT M07/M08 A3034 RMK A01 T10701077  RH  094%=      5-min Rain = 0
KNH1 091312Z 33003KT M07/M08 A3034 RMK A01 T10701078  RH  094%=      5-min Rain = 0
KNH1 091313Z 33003KT M07/M08 A3034 RMK A01 T10691077  RH  094%=      5-min Rain = 0
KNH1 091314Z 33003KT M07/M08 A3034 RMK A01 T10691077  RH  094%=      5-min Rain = 0
KNH1 091315Z 33004KT M07/M08 A3034 RMK A01 T10701078  RH  094%=      5-min Rain = 0
KNH1 091316Z 33003KT M07/M08 A3034 RMK A01 T10701078  RH  094%=      5-min Rain = 0
KNH1 091317Z 33003KT M07/M08 A3034 RMK A01 T10701078  RH  094%=      5-min Rain = 0
KNH1 091318Z 32002KT M07/M08 A3034 RMK A01 T10691077  RH  094%=      5-min Rain = 0
KNH1 091319Z 32002KT M07/M08 A3034 RMK A01 T10691077  RH  094%=      5-min Rain = 0
KNH1 091320Z 32002KT M07/M08 A3034 RMK A01 T10701078  RH  094%=      5-min Rain = 0
KNH1 091321Z 32003KT M07/M08 A3034 RMK A01 T10721080  RH  094%=      5-min Rain = 0
KNH1 091322Z 31003KT M07/M08 A3034 RMK A01 T10721081  RH  094%=      5-min Rain = 0
KNH1 091323Z 32002KT M07/M08 A3034 RMK A01 T10741082  RH  094%=      5-min Rain = 0
KNH1 091324Z 32002KT M07/M08 A3034 RMK A01 T10741083  RH  094%=      5-min Rain = 0
KNH1 091325Z 32002KT M07/M08 A3035 RMK A01 T10741083  RH  094%=      5-min Rain = 0
KNH1 091326Z 32002KT M08/M08 A3035 RMK A01 T10751084  RH  094%=      5-min Rain = 0
KNH1 091327Z 32003KT M08/M08 A3035 RMK A01 T10751083  RH  094%=      5-min Rain = 0
KNH1 091328Z 32003KT M08/M08 A3035 RMK A01 T10751083  RH  094%=      5-min Rain = 0
KNH1 091329Z 32003KT M08/M08 A3035 RMK A01 T10751083  RH  094%=      5-min Rain = 0
KNH1 091330Z 32003KT M08/M08 A3035 RMK A01 T10751083  RH  094%=      5-min Rain = 0
KNH1 091331Z 33003KT M08/M08 A3035 RMK A01 T10751084  RH  094%=      5-min Rain = 0
KNH1 091332Z 32003KT M08/M08 A3035 RMK A01 T10751084  RH  094%=      5-min Rain = 0
KNH1 091333Z 32002KT M08/M08 A3035 RMK A01 T10751084  RH  094%=      5-min Rain = 0
KNH1 091334Z 33002KT M08/M08 A3035 RMK A01 T10751084  RH  094%=      5-min Rain = 0
KNH1 091335Z 32003KT M08/M08 A3035 RMK A01 T10751084  RH  094%=      5-min Rain = 0
KNH1 091336Z 32003KT M08/M08 A3035 RMK A01 T10751084  RH  094%=      5-min Rain = 0
KNH1 091337Z 32003KT M08/M08 A3035 RMK A01 T10751083  RH  094%=      5-min Rain = 0
KNH1 091338Z 32003KT M08/M08 A3035 RMK A01 T10751083  RH  094%=      5-min Rain = 0
KNH1 091339Z 31003KT M08/M08 A3035 RMK A01 T10751083  RH  094%=      5-min Rain = 0
KNH1 091340Z 32002KT M08/M08 A3035 RMK A01 T10751083  RH  094%=      5-min Rain = 0
KNH1 091341Z 32003KT M08/M08 A3035 RMK A01 T10751084  RH  094%=      5-min Rain = 0
KNH1 091342Z 31003KT M08/M08 A3035 RMK A01 T10761084  RH  094%=      5-min Rain = 0
KNH1 091343Z 31003KT M08/M09 A3035 RMK A01 T10761085  RH  094%=      5-min Rain = 0
KNH1 091344Z 32003KT M08/M09 A3035 RMK A01 T10761085  RH  094%=      5-min Rain = 0
KNH1 091345Z 32003KT M08/M09 A3036 RMK A01 T10761085  RH  094%=      5-min Rain = 0
KNH1 091346Z 32003KT M08/M09 A3036 RMK A01 T10761085  RH  094%=      5-min Rain = 0
KNH1 091347Z 31003KT M08/M09 A3036 RMK A01 T10761085  RH  094%=      5-min Rain = 0
KNH1 091348Z 32003KT M08/M09 A3036 RMK A01 T10761085  RH  094%=      5-min Rain = 0
KNH1 091349Z 32003KT M08/M09 A3036 RMK A01 T10761085  RH  094%=      5-min Rain = 0
KNH1 091350Z 32003KT M08/M09 A3036 RMK A01 T10761085  RH  094%=      5-min Rain = 0
KNH1 091351Z 32003KT M08/M09 A3035 RMK A01 T10761085  RH  094%=      5-min Rain = 0
KNH1 091352Z 32003KT M08/M08 A3035 RMK A01 T10761084  RH  094%=      5-min Rain = 0
KNH1 091353Z 32003KT M08/M08 A3035 RMK A01 T10751083  RH  094%=      5-min Rain = 0
KNH1 091354Z 32004KT M08/M08 A3035 RMK A01 T10751083  RH  094%=      5-min Rain = 0
KNH1 091355Z 32003KT M08/M08 A3035 RMK A01 T10751083  RH  094%=      5-min Rain = 0
KNH1 091356Z 32003KT M08/M08 A3036 RMK A01 T10751083  RH  094%=      5-min Rain = 0
KNH1 091357Z 31003KT M08/M08 A3036 RMK A01 T10751083  RH  094%=      5-min Rain = 0
KNH1 091358Z 32003KT M08/M08 A3036 RMK A01 T10751083  RH  094%=      5-min Rain = 0
KNH1 091359Z 31004KT M07/M08 A3036 RMK A01 T10741083  RH  094%=      5-min Rain = 0
KNH1 091400Z 32003KT M07/M08 A3036 RMK A01 T10741083  RH  094%=      5-min Rain = 0
KNH1 091401Z 32003KT M08/M08 A3036 RMK A01 T10751083  RH  094%=      5-min Rain = 0
KNH1 091402Z 32003KT M08/M08 A3036 RMK A01 T10751083  RH  094%=      5-min Rain = 0
KNH1 091403Z 32003KT M08/M08 A3036 RMK A01 T10751083  RH  094%=      5-min Rain = 0
KNH1 091404Z 32003KT M08/M08 A3036 RMK A01 T10751084  RH  094%=      5-min Rain = 0
KNH1 091405Z 32003KT M08/M08 A3036 RMK A01 T10751083  RH  094%=      5-min Rain = 0
KNH1 091406Z 32003KT M08/M08 A3036 RMK A01 T10751083  RH  094%=      5-min Rain = 0
KNH1 091407Z 31002KT M08/M08 A3036 RMK A01 T10751083  RH  094%=      5-min Rain = 0
KNH1 091408Z 32003KT M08/M08 A3036 RMK A01 T10751083  RH  094%=      5-min Rain = 0
KNH1 091409Z 32003KT M08/M08 A3036 RMK A01 T10751083  RH  094%=      5-min Rain = 0
KNH1 091410Z 32002KT M07/M08 A3036 RMK A01 T10741083  RH  094%=      5-min Rain = 0
KNH1 091411Z 32003KT M07/M08 A3036 RMK A01 T10741083  RH  094%=      5-min Rain = 0
KNH1 091412Z 32003KT M07/M08 A3036 RMK A01 T10741082  RH  094%=      5-min Rain = 0
KNH1 091413Z 32004KT M07/M08 A3036 RMK A01 T10731081  RH  094%=      5-min Rain = 0
KNH1 091414Z 33004KT M07/M08 A3036 RMK A01 T10721080  RH  094%=      5-min Rain = 0
KNH1 091415Z 33004KT M07/M08 A3036 RMK A01 T10711078  RH  094%=      5-min Rain = 0
KNH1 091416Z 33004KT M07/M08 A3036 RMK A01 T10701077  RH  094%=      5-min Rain = 0
KNH1 091417Z 32004KT M07/M08 A3036 RMK A01 T10691077  RH  094%=      5-min Rain = 0
KNH1 091418Z 33004KT M07/M08 A3036 RMK A01 T10681075  RH  095%=      5-min Rain = 0
KNH1 091419Z 32003KT M07/M07 A3036 RMK A01 T10681074  RH  095%=      5-min Rain = 0
KNH1 091420Z 32004KT M07/M07 A3036 RMK A01 T10671074  RH  095%=      5-min Rain = 0
KNH1 091421Z 33003KT M07/M08 A3036 RMK A01 T10671075  RH  095%=      5-min Rain = 0
KNH1 091422Z 32003KT M07/M08 A3036 RMK A01 T10681075  RH  095%=      5-min Rain = 0
KNH1 091423Z 33004KT M07/M08 A3036 RMK A01 T10681075  RH  095%=      5-min Rain = 0
KNH1 091424Z 33003KT M07/M08 A3036 RMK A01 T10681075  RH  095%=      5-min Rain = 0
KNH1 091425Z 33004KT M07/M08 A3036 RMK A01 T10671075  RH  095%=      5-min Rain = 0
KNH1 091426Z 32004KT M07/M08 A3036 RMK A01 T10671075  RH  095%=      5-min Rain = 0
KNH1 091427Z 32004KT M07/M07 A3036 RMK A01 T10671074  RH  095%=      5-min Rain = 0
KNH1 091428Z 32003KT M07/M07 A3036 RMK A01 T10661073  RH  095%=      5-min Rain = 0
KNH1 091429Z 33003KT M07/M07 A3036 RMK A01 T10661073  RH  095%=      5-min Rain = 0
KNH1 091430Z 33004KT M07/M07 A3037 RMK A01 T10651073  RH  095%=      5-min Rain = 0
KNH1 091431Z 33004KT M07/M07 A3037 RMK A01 T10651072  RH  095%=      5-min Rain = 0
KNH1 091432Z 33003KT M06/M07 A3037 RMK A01 T10641072  RH  095%=      5-min Rain = 0
KNH1 091433Z 33003KT M06/M07 A3037 RMK A01 T10641071  RH  095%=      5-min Rain = 0
KNH1 091434Z 33003KT M06/M07 A3037 RMK A01 T10631070  RH  095%=      5-min Rain = 0
KNH1 091435Z 33003KT M06/M07 A3037 RMK A01 T10631070  RH  095%=      5-min Rain = 0
KNH1 091436Z 32003KT M06/M07 A3037 RMK A01 T10621070  RH  095%=      5-min Rain = 0
KNH1 091437Z 31002KT M06/M07 A3037 RMK A01 T10621069  RH  095%=      5-min Rain = 0
KNH1 091438Z 32003KT M06/M07 A3037 RMK A01 T10611068  RH  095%=      5-min Rain = 0
KNH1 091439Z 32004KT M06/M07 A3037 RMK A01 T10611068  RH  095%=      5-min Rain = 0
KNH1 091440Z 32004KT M06/M07 A3037 RMK A01 T10601067  RH  095%=      5-min Rain = 0
KNH1 091441Z 32004KT M06/M07 A3037 RMK A01 T10601067  RH  095%=      5-min Rain = 0
KNH1 091442Z 33004KT M06/M07 A3037 RMK A01 T10591067  RH  095%=      5-min Rain = 0
KNH1 091443Z 32003KT M06/M07 A3037 RMK A01 T10591066  RH  095%=      5-min Rain = 0
KNH1 091444Z 33004KT M06/M07 A3037 RMK A01 T10591066  RH  095%=      5-min Rain = 0
KNH1 091445Z 33004KT M06/M07 A3037 RMK A01 T10591066  RH  095%=      5-min Rain = 0
KNH1 091446Z 32004KT M06/M07 A3037 RMK A01 T10591066  RH  095%=      5-min Rain = 0
KNH1 091447Z 33004KT M06/M07 A3037 RMK A01 T10591066  RH  095%=      5-min Rain = 0
KNH1 091448Z 33004KT M06/M07 A3037 RMK A01 T10591066  RH  095%=      5-min Rain = 0
KNH1 091449Z 33004KT M06/M07 A3037 RMK A01 T10581066  RH  095%=      5-min Rain = 0
KNH1 091450Z 33004KT M06/M07 A3037 RMK A01 T10581065  RH  095%=      5-min Rain = 0
KNH1 091451Z 33004KT M06/M06 A3037 RMK A01 T10571064  RH  095%=      5-min Rain = 0
KNH1 091452Z 33004KT M06/M06 A3037 RMK A01 T10571064  RH  095%=      5-min Rain = 0
KNH1 091453Z 33004KT M06/M06 A3037 RMK A01 T10571064  RH  095%=      5-min Rain = 0
KNH1 091454Z 33004KT M06/M06 A3037 RMK A01 T10571064  RH  095%=      5-min Rain = 0
KNH1 091455Z 33004KT M06/M06 A3037 RMK A01 T10561063  RH  095%=      5-min Rain = 0
KNH1 091456Z 34004KT M06/M06 A3037 RMK A01 T10551063  RH  095%=      5-min Rain = 0
KNH1 091457Z 34004KT M06/M06 A3037 RMK A01 T10551062  RH  095%=      5-min Rain = 0
KNH1 091458Z 34004KT M06/M06 A3037 RMK A01 T10551062  RH  095%=      5-min Rain = 0
KNH1 091459Z 34004KT M05/M06 A3037 RMK A01 T10541062  RH  095%=      5-min Rain = 0
KNH1 091500Z 34004KT M06/M06 A3037 RMK A01 T10551062  RH  095%=      5-min Rain = 0
KNH1 091501Z 34004KT M05/M06 A3037 RMK A01 T10541061  RH  095%=      5-min Rain = 0
KNH1 091502Z 34004KT M05/M06 A3038 RMK A01 T10531060  RH  095%=      5-min Rain = 0
KNH1 091503Z 34004KT M05/M06 A3038 RMK A01 T10531060  RH  095%=      5-min Rain = 0
KNH1 091504Z 34004KT M05/M06 A3038 RMK A01 T10531060  RH  095%=      5-min Rain = 0
KNH1 091505Z 34004KT M05/M06 A3038 RMK A01 T10521059  RH  095%=      5-min Rain = 0
KNH1 091506Z 34003KT M05/M06 A3038 RMK A01 T10521059  RH  095%=      5-min Rain = 0
KNH1 091507Z 34003KT M05/M06 A3038 RMK A01 T10511058  RH  095%=      5-min Rain = 0
KNH1 091508Z 34004KT M05/M06 A3038 RMK A01 T10511058  RH  095%=      5-min Rain = 0
KNH1 091509Z 33004KT M05/M06 A3038 RMK A01 T10511058  RH  095%=      5-min Rain = 0
KNH1 091510Z 33004KT M05/M06 A3038 RMK A01 T10511058  RH  095%=      5-min Rain = 0
KNH1 091511Z 34004KT M05/M06 A3038 RMK A01 T10501057  RH  095%=      5-min Rain = 0
KNH1 091512Z 34004KT M05/M06 A3038 RMK A01 T10501057  RH  095%=      5-min Rain = 0
KNH1 091513Z 34004KT M05/M06 A3038 RMK A01 T10491056  RH  095%=      5-min Rain = 0
KNH1 091514Z 33004KT M05/M06 A3038 RMK A01 T10481055  RH  095%=      5-min Rain = 0
KNH1 091515Z 33004KT M05/M05 A3038 RMK A01 T10481054  RH  095%=      5-min Rain = 0
KNH1 091516Z 33004KT M05/M05 A3038 RMK A01 T10471054  RH  095%=      5-min Rain = 0
KNH1 091517Z 33004KT M05/M05 A3038 RMK A01 T10461053  RH  095%=      5-min Rain = 0
KNH1 091518Z 33005KT M05/M05 A3038 RMK A01 T10461052  RH  095%=      5-min Rain = 0
KNH1 091519Z 34004KT M05/M05 A3038 RMK A01 T10451051  RH  096%=      5-min Rain = 0
KNH1 091520Z 34005KT M04/M05 A3038 RMK A01 T10441050  RH  096%=      5-min Rain = 0
KNH1 091521Z 33005KT M04/M05 A3038 RMK A01 T10441049  RH  096%=      5-min Rain = 0
KNH1 091522Z 34004KT M04/M05 A3038 RMK A01 T10431049  RH  096%=      5-min Rain = 0
KNH1 091523Z 33004KT M04/M05 A3038 RMK A01 T10431049  RH  096%=      5-min Rain = 0
KNH1 091524Z 34003KT M04/M05 A3038 RMK A01 T10431048  RH  096%=      5-min Rain = 0
KNH1 091525Z 34004KT M04/M05 A3038 RMK A01 T10421048  RH  096%=      5-min Rain = 0
KNH1 091526Z 34003KT M04/M05 A3038 RMK A01 T10421047  RH  096%=      5-min Rain = 0
KNH1 091527Z 34003KT M04/M05 A3038 RMK A01 T10411047  RH  096%=      5-min Rain = 0
KNH1 091528Z 33003KT M04/M05 A3038 RMK A01 T10411047  RH  096%=      5-min Rain = 0
KNH1 091529Z 34003KT M04/M05 A3038 RMK A01 T10401045  RH  096%=      5-min Rain = 0
KNH1 091530Z 34004KT M04/M05 A3038 RMK A01 T10401045  RH  096%=      5-min Rain = 0
KNH1 091531Z 33003KT M04/M04 A3038 RMK A01 T10391044  RH  096%=      5-min Rain = 0
KNH1 091532Z 33004KT M04/M04 A3039 RMK A01 T10381043  RH  096%=      5-min Rain = 0
KNH1 091533Z 33004KT M04/M04 A3039 RMK A01 T10381043  RH  096%=      5-min Rain = 0
KNH1 091534Z 34004KT M04/M04 A3039 RMK A01 T10371043  RH  096%=      5-min Rain = 0
KNH1 091535Z 34005KT M04/M04 A3039 RMK A01 T10371043  RH  096%=      5-min Rain = 0
KNH1 091536Z 33005KT M04/M04 A3039 RMK A01 T10371043  RH  096%=      5-min Rain = 0
KNH1 091537Z 34005KT M04/M04 A3039 RMK A01 T10371044  RH  095%=      5-min Rain = 0
KNH1 091538Z 34004KT M04/M04 A3039 RMK A01 T10371043  RH  096%=      5-min Rain = 0
KNH1 091539Z 33004KT M04/M04 A3039 RMK A01 T10361041  RH  096%=      5-min Rain = 0
KNH1 091540Z 33004KT M04/M04 A3039 RMK A01 T10351041  RH  096%=      5-min Rain = 0
KNH1 091541Z 33005KT M04/M04 A3039 RMK A01 T10361041  RH  096%=      5-min Rain = 0
KNH1 091542Z 34004KT M04/M04 A3039 RMK A01 T10361042  RH  096%=      5-min Rain = 0
KNH1 091543Z 34004KT M04/M04 A3039 RMK A01 T10361041  RH  096%=      5-min Rain = 0
KNH1 091544Z 34005KT M04/M04 A304 RMK A01 T10361041  RH  096%=      5-min Rain = 0
KNH1 091545Z 33004KT M04/M04 A304 RMK A01 T10351041  RH  096%=      5-min Rain = 0
KNH1 091546Z 33004KT M04/M04 A304 RMK A01 T10351040  RH  096%=      5-min Rain = 0
KNH1 091547Z 33004KT M04/M04 A304 RMK A01 T10351041  RH  096%=      5-min Rain = 0
KNH1 091548Z 33005KT M04/M04 A304 RMK A01 T10351040  RH  096%=      5-min Rain = 0
KNH1 091549Z 33005KT M03/M04 A304 RMK A01 T10341040  RH  096%=      5-min Rain = 0
KNH1 091550Z 33005KT M03/M04 A304 RMK A01 T10341040  RH  096%=      5-min Rain = 0
KNH1 091551Z 33005KT M03/M04 A304 RMK A01 T10341040  RH  096%=      5-min Rain = 0
KNH1 091552Z 34005KT M03/M04 A304 RMK A01 T10331039  RH  096%=      5-min Rain = 0
KNH1 091553Z 33005KT M03/M04 A3041 RMK A01 T10331038  RH  096%=      5-min Rain = 0
KNH1 091554Z 33005KT M03/M04 A3041 RMK A01 T10321038  RH  096%=      5-min Rain = 0
KNH1 091555Z 33005KT M03/M04 A3041 RMK A01 T10321037  RH  096%=      5-min Rain = 0
KNH1 091556Z 33005KT M03/M04 A3041 RMK A01 T10321038  RH  096%=      5-min Rain = 0
KNH1 091557Z 33005KT M03/M04 A3041 RMK A01 T10321037  RH  096%=      5-min Rain = 0
KNH1 091558Z 33006KT M03/M04 A3041 RMK A01 T10321037  RH  096%=      5-min Rain = 0
KNH1 091559Z 34006KT M03/M04 A3041 RMK A01 T10311037  RH  096%=      5-min Rain = 0
KNH1 091600Z 34005KT M03/M04 A3041 RMK A01 T10301036  RH  096%=      5-min Rain = 0
KNH1 091601Z 34005KT M03/M04 A3041 RMK A01 T10301036  RH  096%=      5-min Rain = 0
KNH1 091602Z 34005KT M03/M04 A3041 RMK A01 T10291035  RH  096%=      5-min Rain = 0
KNH1 091603Z 34005KT M03/M04 A3041 RMK A01 T10291035  RH  096%=      5-min Rain = 0
KNH1 091604Z 34005KT M03/M03 A3041 RMK A01 T10281034  RH  096%=      5-min Rain = 0
KNH1 091605Z 34005KT M03/M03 A3041 RMK A01 T10281034  RH  095%=      5-min Rain = 0
KNH1 091606Z 34005KT M03/M03 A3041 RMK A01 T10271033  RH  096%=      5-min Rain = 0
KNH1 091607Z 35006KT M03/M03 A3041 RMK A01 T10261032  RH  096%=      5-min Rain = 0
KNH1 091608Z 35006KT M03/M03 A3041 RMK A01 T10261032  RH  096%=      5-min Rain = 0
KNH1 091609Z 35005KT M03/M03 A3041 RMK A01 T10251031  RH  096%=      5-min Rain = 0
KNH1 091610Z 35005KT M03/M03 A3041 RMK A01 T10251031  RH  096%=      5-min Rain = 0
KNH1 091611Z 35004KT M02/M03 A3041 RMK A01 T10241030  RH  096%=      5-min Rain = 0
KNH1 091612Z 35005KT M02/M03 A3041 RMK A01 T10241029  RH  096%=      5-min Rain = 0
KNH1 091613Z 35005KT M02/M03 A3041 RMK A01 T10231029  RH  096%=      5-min Rain = 0
KNH1 091614Z 35005KT M02/M03 A3041 RMK A01 T10231029  RH  096%=      5-min Rain = 0
KNH1 091615Z 35006KT M02/M03 A3041 RMK A01 T10231029  RH  096%=      5-min Rain = 0
KNH1 091616Z 35006KT M02/M03 A3041 RMK A01 T10231028  RH  096%=      5-min Rain = 0
KNH1 091617Z 35006KT M02/M03 A3041 RMK A01 T10231028  RH  096%=      5-min Rain = 0
KNH1 091618Z 35005KT M02/M03 A3041 RMK A01 T10221027  RH  096%=      5-min Rain = 0
KNH1 091619Z 36005KT M02/M03 A3041 RMK A01 T10211027  RH  096%=      5-min Rain = 0
KNH1 091620Z 00006KT M02/M03 A3041 RMK A01 T10211027  RH  096%=      5-min Rain = 0
KNH1 091621Z 36005KT M02/M03 A3041 RMK A01 T10211027  RH  096%=      5-min Rain = 0
KNH1 091622Z 36005KT M02/M03 A3041 RMK A01 T10221028  RH  096%=      5-min Rain = 0
KNH1 091623Z 35005KT M02/M03 A3041 RMK A01 T10221028  RH  096%=      5-min Rain = 0
KNH1 091624Z 35004KT M02/M03 A3041 RMK A01 T10221027  RH  096%=      5-min Rain = 0
KNH1 091625Z 36004KT M02/M03 A3041 RMK A01 T10211026  RH  096%=      5-min Rain = 0
KNH1 091626Z 35004KT M02/M03 A3041 RMK A01 T10201026  RH  096%=      5-min Rain = 0
KNH1 091627Z 35004KT M02/M03 A3041 RMK A01 T10201025  RH  096%=      5-min Rain = 0
KNH1 091628Z 36003KT M02/M02 A3041 RMK A01 T10191024  RH  096%=      5-min Rain = 0
KNH1 091629Z 36004KT M02/M02 A3041 RMK A01 T10171022  RH  096%=      5-min Rain = 0
KNH1 091630Z 36004KT M02/M02 A3041 RMK A01 T10171022  RH  096%=      5-min Rain = 0
KNH1 091631Z 36003KT M02/M02 A3041 RMK A01 T10171022  RH  096%=      5-min Rain = 0
KNH1 091632Z 36003KT M02/M02 A3041 RMK A01 T10171022  RH  096%=      5-min Rain = 0
KNH1 091633Z 36003KT M02/M02 A3041 RMK A01 T10171023  RH  096%=      5-min Rain = 0
KNH1 091634Z 36003KT M02/M02 A3041 RMK A01 T10161022  RH  096%=      5-min Rain = 0
KNH1 091635Z 00003KT M02/M02 A3041 RMK A01 T10151020  RH  096%=      5-min Rain = 0
KNH1 091636Z 03003KT M02/M02 A3041 RMK A01 T10151020  RH  096%=      5-min Rain = 0
KNH1 091637Z 02004KT M02/M02 A3041 RMK A01 T10161022  RH  096%=      5-min Rain = 0
KNH1 091638Z 04002KT M02/M02 A3041 RMK A01 T10181024  RH  096%=      5-min Rain = 0
KNH1 091639Z 02003KT M02/M02 A3041 RMK A01 T10181024  RH  096%=      5-min Rain = 0
KNH1 091640Z 02003KT M02/M02 A3041 RMK A01 T10171023  RH  096%=      5-min Rain = 0
KNH1 091641Z 02003KT M02/M02 A3041 RMK A01 T10171023  RH  096%=      5-min Rain = 0
KNH1 091642Z 03003KT M02/M02 A3041 RMK A01 T10171023  RH  096%=      5-min Rain = 0
KNH1 091643Z 03004KT M02/M02 A3041 RMK A01 T10171023  RH  096%=      5-min Rain = 0
KNH1 091644Z 03003KT M02/M02 A3041 RMK A01 T10171024  RH  095%=      5-min Rain = 0
KNH1 091645Z 02003KT M02/M02 A3041 RMK A01 T10171024  RH  095%=      5-min Rain = 0
KNH1 091646Z 03003KT M02/M02 A3041 RMK A01 T10171023  RH  095%=      5-min Rain = 0
KNH1 091647Z 02003KT M02/M02 A304 RMK A01 T10171024  RH  095%=      5-min Rain = 0
KNH1 091648Z 03003KT M02/M02 A304 RMK A01 T10161024  RH  095%=      5-min Rain = 0
KNH1 091649Z 03003KT M02/M02 A304 RMK A01 T10161024  RH  094%=      5-min Rain = 0
KNH1 091650Z 03003KT M02/M02 A304 RMK A01 T10161024  RH  094%=      5-min Rain = 0
KNH1 091651Z 04003KT M02/M02 A304 RMK A01 T10151023  RH  094%=      5-min Rain = 0
KNH1 091652Z 03003KT M01/M02 A304 RMK A01 T10141023  RH  094%=      5-min Rain = 0
KNH1 091653Z 03003KT M01/M02 A304 RMK A01 T10141023  RH  093%=      5-min Rain = 0
KNH1 091654Z 02003KT M01/M02 A304 RMK A01 T10141024  RH  093%=      5-min Rain = 0
KNH1 091655Z 00002KT M01/M03 A304 RMK A01 T10141025  RH  092%=      5-min Rain = 0.01
KNH1 091656Z 01003KT M01/M02 A304 RMK A01 T10131024  RH  092%=      5-min Rain = 0
KNH1 091657Z 02002KT M01/M03 A304 RMK A01 T10131025  RH  092%=      5-min Rain = 0
KNH1 091658Z 01002KT M01/M02 A304 RMK A01 T10111023  RH  092%=      5-min Rain = 0
KNH1 091659Z 03002KT M01/M02 A304 RMK A01 T10101022  RH  092%=      5-min Rain = 0
KNH1 091700Z 06002KT M01/M02 A304 RMK A01 T10101022  RH  091%=      5-min Rain = 0
KNH1 091701Z 04002KT M01/M02 A304 RMK A01 T10091023  RH  091%=      5-min Rain = 0
KNH1 091702Z 02002KT M01/M02 A304 RMK A01 T10091024  RH  090%=      5-min Rain = 0
KNH1 091703Z 02002KT M01/M02 A304 RMK A01 T10091024  RH  089%=      5-min Rain = 0
KNH1 091704Z 01003KT M01/M03 A304 RMK A01 T10091025  RH  089%=      5-min Rain = 0
KNH1 091705Z 03003KT M01/M03 A304 RMK A01 T10081025  RH  088%=      5-min Rain = 0
KNH1 091706Z 03002KT M01/M03 A304 RMK A01 T10081027  RH  087%=      5-min Rain = 0
KNH1 091707Z 05002KT M01/M03 A304 RMK A01 T10081027  RH  087%=      5-min Rain = 0
KNH1 091708Z 04002KT M01/M03 A304 RMK A01 T10081028  RH  087%=      5-min Rain = 0
KNH1 091709Z 01001KT M01/M03 A304 RMK A01 T10071027  RH  087%=      5-min Rain = 0
KNH1 091710Z 01003KT M01/M03 A304 RMK A01 T10061026  RH  086%=      5-min Rain = 0
KNH1 091711Z 01003KT M01/M03 A304 RMK A01 T10061027  RH  086%=      5-min Rain = 0
KNH1 091712Z 34003KT M01/M03 A304 RMK A01 T10051025  RH  086%=      5-min Rain = 0
KNH1 091713Z 35003KT M00/M02 A304 RMK A01 T10041023  RH  087%=      5-min Rain = 0
KNH1 091714Z 34003KT M00/M02 A304 RMK A01 T10031023  RH  087%=      5-min Rain = 0
KNH1 091715Z 35004KT M00/M02 A304 RMK A01 T10031023  RH  086%=      5-min Rain = 0
KNH1 091716Z 00004KT M00/M02 A304 RMK A01 T10021021  RH  087%=      5-min Rain = 0
KNH1 091717Z 35004KT 00/02 A304 RMK A01 T00-00-21  RH  086%=      5-min Rain = 0
KNH1 091718Z 01003KT 00/M02 A304 RMK A01 T00011021  RH  085%=      5-min Rain = 0
KNH1 091719Z 36003KT 00/M02 A304 RMK A01 T00011023  RH  084%=      5-min Rain = 0
KNH1 091720Z 36003KT 00/M02 A304 RMK A01 T00021023  RH  084%=      5-min Rain = 0
KNH1 091721Z 35004KT 00/M02 A304 RMK A01 T00021023  RH  084%=      5-min Rain = 0
KNH1 091722Z 35004KT 00/M02 A304 RMK A01 T00021023  RH  083%=      5-min Rain = 0
KNH1 091723Z 35004KT 00/M02 A304 RMK A01 T00031022  RH  084%=      5-min Rain = 0
KNH1 091724Z 35005KT 00/M02 A304 RMK A01 T00041021  RH  084%=      5-min Rain = 0
KNH1 091725Z 35006KT 00/M02 A304 RMK A01 T00041021  RH  083%=      5-min Rain = 0
KNH1 091726Z 35006KT 00/M02 A304 RMK A01 T00041023  RH  083%=      5-min Rain = 0
KNH1 091727Z 00004KT 00/M03 A304 RMK A01 T00031025  RH  081%=      5-min Rain = 0
KNH1 091728Z 01003KT 00/M03 A304 RMK A01 T00031027  RH  081%=      5-min Rain = 0
KNH1 091729Z 03003KT 00/M03 A304 RMK A01 T00031027  RH  081%=      5-min Rain = 0
KNH1 091730Z 02004KT 00/M03 A304 RMK A01 T00021029  RH  080%=      5-min Rain = 0
KNH1 091731Z 02005KT 00/M03 A304 RMK A01 T00011030  RH  080%=      5-min Rain = 0
KNH1 091732Z 03004KT 00/03 A304 RMK A01 T00000-31  RH  080%=      5-min Rain = 0
KNH1 091733Z 03005KT 00/03 A304 RMK A01 T00-00-30  RH  080%=      5-min Rain = 0
KNH1 091734Z 02004KT 00/03 A304 RMK A01 T00-00-30  RH  080%=      5-min Rain = 0
KNH1 091735Z 01003KT 00/03 A304 RMK A01 T00000-31  RH  080%=      5-min Rain = 0
KNH1 091736Z 34003KT 00/M03 A304 RMK A01 T00011028  RH  081%=      5-min Rain = 0
KNH1 091737Z 34003KT 00/M02 A304 RMK A01 T00031024  RH  083%=      5-min Rain = 0
KNH1 091738Z 34003KT 01/M02 A304 RMK A01 T00051020  RH  084%=      5-min Rain = 0
KNH1 091739Z 34003KT 01/M02 A304 RMK A01 T00051020  RH  083%=      5-min Rain = 0
KNH1 091740Z 34002KT 01/M02 A304 RMK A01 T00051020  RH  083%=      5-min Rain = 0
KNH1 091741Z 34002KT 01/M02 A304 RMK A01 T00061021  RH  082%=      5-min Rain = 0
KNH1 091742Z 34002KT 01/M02 A304 RMK A01 T00061023  RH  081%=      5-min Rain = 0
KNH1 091743Z 35002KT 01/M02 A304 RMK A01 T00061022  RH  082%=      5-min Rain = 0
KNH1 091744Z 35002KT 01/M02 A304 RMK A01 T00081020  RH  082%=      5-min Rain = 0
KNH1 091745Z 34002KT 01/M02 A304 RMK A01 T00081020  RH  081%=      5-min Rain = 0
KNH1 091746Z 34002KT 01/M02 A304 RMK A01 T00091022  RH  080%=      5-min Rain = 0
KNH1 091747Z 34002KT 01/M02 A304 RMK A01 T00101024  RH  078%=      5-min Rain = 0
KNH1 091748Z 34002KT 01/M02 A304 RMK A01 T00101024  RH  078%=      5-min Rain = 0
KNH1 091749Z 34003KT 01/M02 A304 RMK A01 T00101022  RH  079%=      5-min Rain = 0
KNH1 091750Z 34002KT 01/M03 A304 RMK A01 T00101025  RH  078%=      5-min Rain = 0
KNH1 091751Z 34003KT 01/M03 A304 RMK A01 T00091026  RH  077%=      5-min Rain = 0
KNH1 091752Z 34002KT 01/M03 A304 RMK A01 T00091026  RH  077%=      5-min Rain = 0
KNH1 091753Z 34002KT 01/M02 A304 RMK A01 T00101023  RH  079%=      5-min Rain = 0
KNH1 091754Z 31002KT 01/M02 A304 RMK A01 T00121023  RH  078%=      5-min Rain = 0
KNH1 091755Z 31002KT 01/M03 A304 RMK A01 T00111025  RH  077%=      5-min Rain = 0
KNH1 091756Z 30001KT 01/M03 A304 RMK A01 T00101026  RH  077%=      5-min Rain = 0
KNH1 091757Z 31001KT 01/M03 A304 RMK A01 T00101025  RH  078%=      5-min Rain = 0
KNH1 091758Z 32002KT 01/M03 A304 RMK A01 T00101026  RH  077%=      5-min Rain = 0
KNH1 091759Z 31002KT 01/M03 A304 RMK A01 T00111025  RH  077%=      5-min Rain = 0
KNH1 091800Z 30002KT 01/M03 A304 RMK A01 T00111027  RH  076%=      5-min Rain = 0
KNH1 091801Z 30002KT 01/M03 A304 RMK A01 T00121027  RH  076%=      5-min Rain = 0
KNH1 091802Z 32001KT 01/M03 A3039 RMK A01 T00121028  RH  075%=      5-min Rain = 0
KNH1 091803Z 34001KT 01/M03 A304 RMK A01 T00131025  RH  076%=      5-min Rain = 0
KNH1 091804Z 33001KT 02/M02 A304 RMK A01 T00151024  RH  075%=      5-min Rain = 0
KNH1 091805Z 33002KT 02/M03 A304 RMK A01 T00161025  RH  074%=      5-min Rain = 0
KNH1 091806Z 34003KT 02/M03 A3039 RMK A01 T00161028  RH  073%=      5-min Rain = 0
KNH1 091807Z 33003KT 02/M03 A3039 RMK A01 T00161028  RH  072%=      5-min Rain = 0
KNH1 091808Z 33003KT 02/M03 A3039 RMK A01 T00161028  RH  072%=      5-min Rain = 0
KNH1 091809Z 34003KT 02/M03 A3039 RMK A01 T00161029  RH  072%=      5-min Rain = 0
KNH1 091810Z 34003KT 02/M03 A3039 RMK A01 T00161027  RH  073%=      5-min Rain = 0
KNH1 091811Z 33002KT 02/M03 A3039 RMK A01 T00161031  RH  071%=      5-min Rain = 0
KNH1 091812Z 32002KT 02/M03 A3039 RMK A01 T00161032  RH  070%=      5-min Rain = 0
KNH1 091813Z 30003KT 02/M03 A3039 RMK A01 T00151030  RH  072%=      5-min Rain = 0
KNH1 091814Z 31002KT 02/M03 A3039 RMK A01 T00151027  RH  074%=      5-min Rain = 0
KNH1 091815Z 31002KT 02/M03 A3039 RMK A01 T00151026  RH  074%=      5-min Rain = 0
KNH1 091816Z 28002KT 02/M03 A3039 RMK A01 T00151025  RH  075%=      5-min Rain = 0
KNH1 091817Z 28003KT 02/M02 A3039 RMK A01 T00151022  RH  077%=      5-min Rain = 0
KNH1 091818Z 28002KT 02/M02 A3038 RMK A01 T00151019  RH  078%=      5-min Rain = 0
KNH1 091819Z 26001KT 02/M02 A3038 RMK A01 T00161021  RH  076%=      5-min Rain = 0
KNH1 091820Z 27002KT 02/M02 A3038 RMK A01 T00181020  RH  076%=      5-min Rain = 0
KNH1 091821Z 34002KT 02/M02 A3038 RMK A01 T00191017  RH  077%=      5-min Rain = 0
KNH1 091822Z 35001KT 02/M02 A3038 RMK A01 T00201018  RH  076%=      5-min Rain = 0
KNH1 091823Z 31002KT 02/M02 A3038 RMK A01 T00211018  RH  075%=      5-min Rain = 0
KNH1 091824Z 32002KT 02/M02 A3038 RMK A01 T00201021  RH  074%=      5-min Rain = 0
KNH1 091825Z 31002KT 02/M02 A3038 RMK A01 T00191022  RH  075%=      5-min Rain = 0
KNH1 091826Z 31002KT 02/M02 A3038 RMK A01 T00181023  RH  074%=      5-min Rain = 0
KNH1 091827Z 32001KT 02/M02 A3038 RMK A01 T00181023  RH  074%=      5-min Rain = 0
KNH1 091828Z 34002KT 02/M02 A3038 RMK A01 T00181022  RH  075%=      5-min Rain = 0
KNH1 091829Z 33002KT 02/M02 A3038 RMK A01 T00191023  RH  074%=      5-min Rain = 0
KNH1 091830Z 34002KT 02/M02 A3038 RMK A01 T00191023  RH  074%=      5-min Rain = 0
KNH1 091831Z 32003KT 02/M02 A3038 RMK A01 T00201022  RH  074%=      5-min Rain = 0
KNH1 091832Z 31002KT 02/M02 A3038 RMK A01 T00191023  RH  073%=      5-min Rain = 0
KNH1 091833Z 34002KT 02/M02 A3037 RMK A01 T00181023  RH  074%=      5-min Rain = 0
KNH1 091834Z 35003KT 02/M02 A3037 RMK A01 T00181022  RH  075%=      5-min Rain = 0
KNH1 091835Z 34003KT 02/M02 A3037 RMK A01 T00191022  RH  074%=      5-min Rain = 0
KNH1 091836Z 34003KT 02/M02 A3037 RMK A01 T00201020  RH  075%=      5-min Rain = 0
KNH1 091837Z 34004KT 02/M02 A3037 RMK A01 T00201021  RH  074%=      5-min Rain = 0
KNH1 091838Z 34004KT 02/M02 A3037 RMK A01 T00201020  RH  075%=      5-min Rain = 0
KNH1 091839Z 33004KT 02/M02 A3037 RMK A01 T00211019  RH  075%=      5-min Rain = 0
KNH1 091840Z 32003KT 02/M02 A3037 RMK A01 T00211020  RH  075%=      5-min Rain = 0
KNH1 091841Z 32003KT 02/M02 A3037 RMK A01 T00211021  RH  074%=      5-min Rain = 0
KNH1 091842Z 35003KT 02/M02 A3037 RMK A01 T00201020  RH  075%=      5-min Rain = 0
KNH1 091843Z 34003KT 02/M02 A3037 RMK A01 T00211020  RH  075%=      5-min Rain = 0
KNH1 091844Z 34003KT 02/M02 A3037 RMK A01 T00211019  RH  075%=      5-min Rain = 0
KNH1 091845Z 35003KT 02/M02 A3037 RMK A01 T00211020  RH  074%=      5-min Rain = 0
KNH1 091846Z 35003KT 02/M02 A3037 RMK A01 T00221022  RH  073%=      5-min Rain = 0
KNH1 091847Z 35003KT 02/M02 A3037 RMK A01 T00211020  RH  074%=      5-min Rain = 0
KNH1 091848Z 35002KT 02/M02 A3037 RMK A01 T00221020  RH  074%=      5-min Rain = 0
KNH1 091849Z 36002KT 02/M02 A3037 RMK A01 T00221022  RH  072%=      5-min Rain = 0
KNH1 091850Z 35002KT 02/M02 A3037 RMK A01 T00221024  RH  072%=      5-min Rain = 0
KNH1 091851Z 36002KT 02/M03 A3037 RMK A01 T00211026  RH  071%=      5-min Rain = 0
KNH1 091852Z 35003KT 02/M03 A3037 RMK A01 T00201025  RH  072%=      5-min Rain = 0
KNH1 091853Z 35002KT 02/M02 A3037 RMK A01 T00201024  RH  073%=      5-min Rain = 0
KNH1 091854Z 36002KT 02/M02 A3037 RMK A01 T00201024  RH  073%=      5-min Rain = 0
KNH1 091855Z 35001KT 02/M02 A3037 RMK A01 T00211024  RH  072%=      5-min Rain = 0
KNH1 091856Z 35002KT 02/M02 A3037 RMK A01 T00211024  RH  072%=      5-min Rain = 0
KNH1 091857Z 34002KT 02/M02 A3037 RMK A01 T00221023  RH  072%=      5-min Rain = 0
KNH1 091858Z 35002KT 02/M02 A3037 RMK A01 T00221023  RH  072%=      5-min Rain = 0
KNH1 091859Z 34002KT 02/M02 A3037 RMK A01 T00231022  RH  072%=      5-min Rain = 0
KNH1 091900Z 35002KT 02/M02 A3036 RMK A01 T00241022  RH  072%=      5-min Rain = 0
KNH1 091901Z 35002KT 03/M02 A3036 RMK A01 T00251022  RH  071%=      5-min Rain = 0
KNH1 091902Z 34002KT 03/M02 A3036 RMK A01 T00261022  RH  071%=      5-min Rain = 0
KNH1 091903Z 35003KT 03/M02 A3036 RMK A01 T00261020  RH  072%=      5-min Rain = 0
KNH1 091904Z 35003KT 03/M02 A3036 RMK A01 T00261019  RH  073%=      5-min Rain = 0
KNH1 091905Z 34002KT 03/M02 A3036 RMK A01 T00261019  RH  072%=      5-min Rain = 0
KNH1 091906Z 36003KT 03/M02 A3036 RMK A01 T00251019  RH  072%=      5-min Rain = 0
KNH1 091907Z 35003KT 03/M02 A3036 RMK A01 T00251019  RH  073%=      5-min Rain = 0
KNH1 091908Z 34003KT 02/M02 A3036 RMK A01 T00241019  RH  073%=      5-min Rain = 0
KNH1 091909Z 34002KT 02/M02 A3036 RMK A01 T00241020  RH  072%=      5-min Rain = 0
KNH1 091910Z 35003KT 03/M02 A3036 RMK A01 T00251020  RH  072%=      5-min Rain = 0
KNH1 091911Z 35003KT 03/M02 A3036 RMK A01 T00261020  RH  072%=      5-min Rain = 0
KNH1 091912Z 35003KT 03/M02 A3036 RMK A01 T00261023  RH  071%=      5-min Rain = 0
KNH1 091913Z 34002KT 03/M02 A3036 RMK A01 T00261022  RH  071%=      5-min Rain = 0
KNH1 091914Z 34002KT 03/M02 A3036 RMK A01 T00271023  RH  070%=      5-min Rain = 0
KNH1 091915Z 35003KT 03/M02 A3036 RMK A01 T00261023  RH  070%=      5-min Rain = 0
KNH1 091916Z 34003KT 03/M02 A3036 RMK A01 T00261024  RH  070%=      5-min Rain = 0
KNH1 091917Z 34002KT 03/M03 A3036 RMK A01 T00261025  RH  069%=      5-min Rain = 0
KNH1 091918Z 35003KT 03/M02 A3036 RMK A01 T00261023  RH  070%=      5-min Rain = 0
KNH1 091919Z 34004KT 03/M02 A3036 RMK A01 T00261021  RH  071%=      5-min Rain = 0
KNH1 091920Z 35004KT 03/M02 A3036 RMK A01 T00261019  RH  072%=      5-min Rain = 0
KNH1 091921Z 34004KT 03/M02 A3036 RMK A01 T00261019  RH  072%=      5-min Rain = 0
KNH1 091922Z 34004KT 03/M02 A3036 RMK A01 T00251020  RH  072%=      5-min Rain = 0
KNH1 091923Z 34004KT 03/M02 A3036 RMK A01 T00251017  RH  073%=      5-min Rain = 0
KNH1 091924Z 34004KT 03/M02 A3036 RMK A01 T00271017  RH  073%=      5-min Rain = 0
KNH1 091925Z 34005KT 03/M02 A3036 RMK A01 T00261019  RH  072%=      5-min Rain = 0
KNH1 091926Z 33004KT 03/M02 A3036 RMK A01 T00251021  RH  072%=      5-min Rain = 0
KNH1 091927Z 34005KT 03/M02 A3036 RMK A01 T00251019  RH  073%=      5-min Rain = 0
KNH1 091928Z 34005KT 03/M02 A3036 RMK A01 T00251019  RH  073%=      5-min Rain = 0
KNH1 091929Z 34005KT 03/M02 A3036 RMK A01 T00251020  RH  072%=      5-min Rain = 0
KNH1 091930Z 34005KT 03/M02 A3036 RMK A01 T00251020  RH  073%=      5-min Rain = 0
KNH1 091931Z 34005KT 03/M02 A3036 RMK A01 T00251017  RH  074%=      5-min Rain = 0
KNH1 091932Z 35005KT 03/M02 A3036 RMK A01 T00261017  RH  073%=      5-min Rain = 0
KNH1 091933Z 34006KT 03/M02 A3036 RMK A01 T00261017  RH  073%=      5-min Rain = 0
KNH1 091934Z 35005KT 03/M02 A3036 RMK A01 T00261017  RH  073%=      5-min Rain = 0
KNH1 091935Z 33005KT 03/M02 A3036 RMK A01 T00261019  RH  072%=      5-min Rain = 0
KNH1 091936Z 33005KT 03/M02 A3036 RMK A01 T00251020  RH  072%=      5-min Rain = 0
KNH1 091937Z 34004KT 02/M02 A3036 RMK A01 T00241019  RH  073%=      5-min Rain = 0
KNH1 091938Z 34006KT 02/M02 A3036 RMK A01 T00241017  RH  074%=      5-min Rain = 0
KNH1 091939Z 34005KT 02/M02 A3036 RMK A01 T00241019  RH  073%=      5-min Rain = 0
KNH1 091940Z 33005KT 02/M02 A3036 RMK A01 T00241018  RH  074%=      5-min Rain = 0
KNH1 091941Z 33003KT 02/M02 A3036 RMK A01 T00241019  RH  074%=      5-min Rain = 0
KNH1 091942Z 31003KT 02/M02 A3036 RMK A01 T00241018  RH  074%=      5-min Rain = 0
KNH1 091943Z 31004KT 02/M02 A3036 RMK A01 T00241016  RH  075%=      5-min Rain = 0
KNH1 091944Z 31004KT 02/M02 A3036 RMK A01 T00241016  RH  075%=      5-min Rain = 0
KNH1 091945Z 32003KT 02/M02 A3036 RMK A01 T00241016  RH  075%=      5-min Rain = 0
KNH1 091946Z 32003KT 02/M02 A3036 RMK A01 T00241016  RH  075%=      5-min Rain = 0
KNH1 091947Z 32003KT 03/M02 A3036 RMK A01 T00251016  RH  075%=      5-min Rain = 0
KNH1 091948Z 33003KT 02/M02 A3036 RMK A01 T00241018  RH  074%=      5-min Rain = 0
KNH1 091949Z 32004KT 02/M02 A3036 RMK A01 T00241017  RH  074%=      5-min Rain = 0
KNH1 091950Z 33003KT 03/M02 A3036 RMK A01 T00251016  RH  074%=      5-min Rain = 0
KNH1 091951Z 31004KT 03/M02 A3035 RMK A01 T00261016  RH  074%=      5-min Rain = 0
KNH1 091952Z 31003KT 03/M02 A3035 RMK A01 T00261017  RH  073%=      5-min Rain = 0
KNH1 091953Z 33003KT 03/M02 A3035 RMK A01 T00251016  RH  074%=      5-min Rain = 0
KNH1 091954Z 33003KT 03/M01 A3035 RMK A01 T00261014  RH  075%=      5-min Rain = 0
KNH1 091955Z 33003KT 03/M02 A3035 RMK A01 T00271016  RH  073%=      5-min Rain = 0
KNH1 091956Z 33003KT 03/M02 A3035 RMK A01 T00271015  RH  074%=      5-min Rain = 0
KNH1 091957Z 34004KT 03/M02 A3035 RMK A01 T00271016  RH  073%=      5-min Rain = 0
KNH1 091958Z 34004KT 03/M01 A3035 RMK A01 T00281014  RH  074%=      5-min Rain = 0
KNH1 091959Z 33004KT 03/M01 A3035 RMK A01 T00291014  RH  073%=      5-min Rain = 0
KNH1 092000Z 33003KT 03/M02 A3035 RMK A01 T00291016  RH  072%=      5-min Rain = 0
KNH1 092001Z 33003KT 03/M01 A3035 RMK A01 T00291014  RH  073%=      5-min Rain = 0
KNH1 092002Z 33003KT 03/M02 A3035 RMK A01 T00281015  RH  073%=      5-min Rain = 0
KNH1 092003Z 32003KT 03/M01 A3035 RMK A01 T00281014  RH  074%=      5-min Rain = 0
KNH1 092004Z 34003KT 03/M01 A3035 RMK A01 T00281013  RH  075%=      5-min Rain = 0
KNH1 092005Z 33003KT 03/M01 A3035 RMK A01 T00291011  RH  075%=      5-min Rain = 0
KNH1 092006Z 33003KT 03/M02 A3035 RMK A01 T00291015  RH  073%=      5-min Rain = 0
KNH1 092007Z 35004KT 03/M01 A3035 RMK A01 T00291014  RH  074%=      5-min Rain = 0
KNH1 092008Z 34003KT 03/M01 A3035 RMK A01 T00291012  RH  074%=      5-min Rain = 0
KNH1 092009Z 33003KT 03/M01 A3035 RMK A01 T00301011  RH  074%=      5-min Rain = 0
KNH1 092010Z 33004KT 03/M01 A3035 RMK A01 T00301013  RH  073%=      5-min Rain = 0
KNH1 092011Z 32003KT 03/M02 A3035 RMK A01 T00291015  RH  072%=      5-min Rain = 0
KNH1 092012Z 31002KT 03/M01 A3035 RMK A01 T00291014  RH  073%=      5-min Rain = 0
KNH1 092013Z 31003KT 03/M01 A3035 RMK A01 T00291012  RH  074%=      5-min Rain = 0
KNH1 092014Z 33003KT 03/M01 A3035 RMK A01 T00301011  RH  074%=      5-min Rain = 0
KNH1 092015Z 32003KT 03/M01 A3035 RMK A01 T00311014  RH  072%=      5-min Rain = 0
KNH1 092016Z 33003KT 03/M02 A3035 RMK A01 T00311017  RH  071%=      5-min Rain = 0
KNH1 092017Z 32003KT 03/M02 A3035 RMK A01 T00311019  RH  070%=      5-min Rain = 0
KNH1 092018Z 33004KT 03/M02 A3035 RMK A01 T00311019  RH  070%=      5-min Rain = 0
KNH1 092019Z 33003KT 03/M02 A3035 RMK A01 T00311020  RH  069%=      5-min Rain = 0
KNH1 092020Z 34004KT 03/M02 A3035 RMK A01 T00311018  RH  070%=      5-min Rain = 0
KNH1 092021Z 31003KT 03/M01 A3035 RMK A01 T00321014  RH  072%=      5-min Rain = 0
KNH1 092022Z 31004KT 03/M02 A3035 RMK A01 T00321015  RH  071%=      5-min Rain = 0
KNH1 092023Z 31003KT 03/M02 A3035 RMK A01 T00311016  RH  071%=      5-min Rain = 0
KNH1 092024Z 31003KT 03/M02 A3035 RMK A01 T00301016  RH  072%=      5-min Rain = 0
KNH1 092025Z 31002KT 03/M01 A3035 RMK A01 T00301014  RH  073%=      5-min Rain = 0
KNH1 092026Z 32002KT 03/M01 A3035 RMK A01 T00311013  RH  073%=      5-min Rain = 0
KNH1 092027Z 33003KT 03/M01 A3035 RMK A01 T00321013  RH  072%=      5-min Rain = 0
KNH1 092028Z 30002KT 03/M01 A3035 RMK A01 T00321014  RH  072%=      5-min Rain = 0
KNH1 092029Z 30003KT 03/M02 A3035 RMK A01 T00331016  RH  071%=      5-min Rain = 0
KNH1 092030Z 31004KT 03/M02 A3035 RMK A01 T00311018  RH  070%=      5-min Rain = 0
KNH1 092031Z 32002KT 03/M02 A3035 RMK A01 T00301018  RH  071%=      5-min Rain = 0
KNH1 092032Z 30003KT 03/M02 A3035 RMK A01 T00301016  RH  072%=      5-min Rain = 0
KNH1 092033Z 34004KT 03/M01 A3035 RMK A01 T00301014  RH  072%=      5-min Rain = 0
KNH1 092034Z 34004KT 03/M01 A3035 RMK A01 T00311013  RH  073%=      5-min Rain = 0
KNH1 092035Z 34003KT 03/M01 A3035 RMK A01 T00321014  RH  072%=      5-min Rain = 0
KNH1 092036Z 31003KT 03/M01 A3035 RMK A01 T00321013  RH  072%=      5-min Rain = 0
KNH1 092037Z 30003KT 03/M01 A3035 RMK A01 T00331013  RH  071%=      5-min Rain = 0
KNH1 092038Z 29003KT 03/M01 A3035 RMK A01 T00331013  RH  072%=      5-min Rain = 0
KNH1 092039Z 32002KT 03/M01 A3035 RMK A01 T00331013  RH  072%=      5-min Rain = 0
KNH1 092040Z 32002KT 03/M01 A3035 RMK A01 T00331011  RH  073%=      5-min Rain = 0
KNH1 092041Z 31002KT 03/M02 A3035 RMK A01 T00341015  RH  070%=      5-min Rain = 0
KNH1 092042Z 31002KT 03/M02 A3035 RMK A01 T00341015  RH  071%=      5-min Rain = 0
KNH1 092043Z 31003KT 03/M02 A3035 RMK A01 T00341016  RH  070%=      5-min Rain = 0
KNH1 092044Z 34002KT 03/M02 A3035 RMK A01 T00331015  RH  070%=      5-min Rain = 0
KNH1 092045Z 33001KT 03/M02 A3035 RMK A01 T00331017  RH  070%=      5-min Rain = 0
KNH1 092046Z 30002KT 03/M02 A3035 RMK A01 T00341016  RH  070%=      5-min Rain = 0
KNH1 092047Z 29002KT 03/M02 A3035 RMK A01 T00341016  RH  070%=      5-min Rain = 0
KNH1 092048Z 28002KT 03/M01 A3035 RMK A01 T00341014  RH  071%=      5-min Rain = 0
KNH1 092049Z 29003KT 04/M01 A3035 RMK A01 T00351014  RH  070%=      5-min Rain = 0
KNH1 092050Z 30003KT 03/M02 A3035 RMK A01 T00341015  RH  070%=      5-min Rain = 0
KNH1 092051Z 30002KT 03/M02 A3035 RMK A01 T00341017  RH  069%=      5-min Rain = 0
KNH1 092052Z 31002KT 03/M02 A3035 RMK A01 T00341016  RH  070%=      5-min Rain = 0
KNH1 092053Z 31003KT 03/M02 A3035 RMK A01 T00341015  RH  070%=      5-min Rain = 0
KNH1 092054Z 29002KT 04/M02 A3035 RMK A01 T00351017  RH  069%=      5-min Rain = 0
KNH1 092055Z 30004KT 04/M02 A3035 RMK A01 T00351016  RH  069%=      5-min Rain = 0
KNH1 092056Z 30004KT 03/M02 A3035 RMK A01 T00341018  RH  069%=      5-min Rain = 0
KNH1 092057Z 30003KT 03/M02 A3035 RMK A01 T00321019  RH  069%=      5-min Rain = 0
KNH1 092058Z 30003KT 03/M01 A3035 RMK A01 T00331013  RH  072%=      5-min Rain = 0
KNH1 092059Z 31003KT 03/M01 A3035 RMK A01 T00341013  RH  071%=      5-min Rain = 0
KNH1 092100Z 31003KT 03/M02 A3035 RMK A01 T00341016  RH  070%=      5-min Rain = 0
KNH1 092101Z 34003KT 04/M02 A3035 RMK A01 T00351015  RH  070%=      5-min Rain = 0
KNH1 092102Z 34003KT 04/M02 A3035 RMK A01 T00361017  RH  068%=      5-min Rain = 0
KNH1 092103Z 32003KT 04/M02 A3035 RMK A01 T00351017  RH  068%=      5-min Rain = 0
KNH1 092104Z 33003KT 04/M01 A3035 RMK A01 T00371012  RH  071%=      5-min Rain = 0
KNH1 092105Z 33003KT 04/M01 A3035 RMK A01 T00371014  RH  069%=      5-min Rain = 0
KNH1 092106Z 30003KT 04/M02 A3035 RMK A01 T00371018  RH  067%=      5-min Rain = 0
KNH1 092107Z 33003KT 04/M02 A3035 RMK A01 T00361017  RH  068%=      5-min Rain = 0
KNH1 092108Z 33003KT 04/M01 A3035 RMK A01 T00361014  RH  070%=      5-min Rain = 0
KNH1 092109Z 33003KT 04/M02 A3035 RMK A01 T00361016  RH  069%=      5-min Rain = 0
KNH1 092110Z 31003KT 04/M02 A3035 RMK A01 T00361016  RH  068%=      5-min Rain = 0
KNH1 092111Z 31003KT 04/M02 A3035 RMK A01 T00371018  RH  068%=      5-min Rain = 0
KNH1 092112Z 34002KT 04/M02 A3035 RMK A01 T00361016  RH  069%=      5-min Rain = 0
KNH1 092113Z 32003KT 04/M02 A3035 RMK A01 T00371016  RH  068%=      5-min Rain = 0
KNH1 092114Z 31003KT 04/M02 A3035 RMK A01 T00381016  RH  068%=      5-min Rain = 0
KNH1 092115Z 33004KT 04/M02 A3035 RMK A01 T00381015  RH  068%=      5-min Rain = 0
KNH1 092116Z 34005KT 04/M01 A3035 RMK A01 T00381012  RH  069%=      5-min Rain = 0
KNH1 092117Z 33003KT 04/M02 A3035 RMK A01 T00381017  RH  067%=      5-min Rain = 0
KNH1 092118Z 32002KT 04/M02 A3035 RMK A01 T00371019  RH  066%=      5-min Rain = 0
KNH1 092119Z 34002KT 04/M02 A3035 RMK A01 T00371016  RH  068%=      5-min Rain = 0
KNH1 092120Z 34003KT 04/M02 A3035 RMK A01 T00381016  RH  068%=      5-min Rain = 0
KNH1 092121Z 33003KT 04/M02 A3035 RMK A01 T00381017  RH  067%=      5-min Rain = 0
KNH1 092122Z 33004KT 04/M02 A3035 RMK A01 T00381018  RH  067%=      5-min Rain = 0
KNH1 092123Z 30004KT 04/M02 A3035 RMK A01 T00381019  RH  066%=      5-min Rain = 0
KNH1 092124Z 31004KT 04/M02 A3035 RMK A01 T00371019  RH  067%=      5-min Rain = 0
KNH1 092125Z 34004KT 04/M02 A3035 RMK A01 T00371020  RH  066%=      5-min Rain = 0
KNH1 092126Z 34003KT 04/M02 A3035 RMK A01 T00371017  RH  068%=      5-min Rain = 0
KNH1 092127Z 31002KT 04/M02 A3035 RMK A01 T00371017  RH  068%=      5-min Rain = 0
KNH1 092128Z 34002KT 04/M02 A3035 RMK A01 T00381016  RH  068%=      5-min Rain = 0
KNH1 092129Z 33004KT 04/M02 A3035 RMK A01 T00381019  RH  066%=      5-min Rain = 0
KNH1 092130Z 33004KT 04/M02 A3035 RMK A01 T00381022  RH  065%=      5-min Rain = 0
KNH1 092131Z 32003KT 04/M02 A3035 RMK A01 T00381023  RH  064%=      5-min Rain = 0
KNH1 092132Z 33003KT 04/M02 A3035 RMK A01 T00381021  RH  066%=      5-min Rain = 0
KNH1 092133Z 33003KT 04/M02 A3035 RMK A01 T00381022  RH  065%=      5-min Rain = 0
KNH1 092134Z 31004KT 04/M02 A3035 RMK A01 T00381022  RH  065%=      5-min Rain = 0
KNH1 092135Z 32003KT 04/M02 A3035 RMK A01 T00371024  RH  064%=      5-min Rain = 0
KNH1 092136Z 34004KT 04/M02 A3035 RMK A01 T00371023  RH  065%=      5-min Rain = 0
KNH1 092137Z 33003KT 04/M02 A3035 RMK A01 T00371023  RH  065%=      5-min Rain = 0
KNH1 092138Z 34004KT 04/M02 A3035 RMK A01 T00361022  RH  066%=      5-min Rain = 0
KNH1 092139Z 34004KT 04/M02 A3035 RMK A01 T00371022  RH  065%=      5-min Rain = 0
KNH1 092140Z 34003KT 04/M02 A3035 RMK A01 T00361022  RH  066%=      5-min Rain = 0
KNH1 092141Z 32002KT 04/M02 A3035 RMK A01 T00371020  RH  066%=      5-min Rain = 0
KNH1 092142Z 33002KT 04/M02 A3035 RMK A01 T00381022  RH  065%=      5-min Rain = 0
KNH1 092143Z 33002KT 04/M02 A3035 RMK A01 T00381022  RH  065%=      5-min Rain = 0
KNH1 092144Z 31002KT 04/M02 A3035 RMK A01 T00391021  RH  065%=      5-min Rain = 0
KNH1 092145Z 33002KT 04/M02 A3035 RMK A01 T00391022  RH  065%=      5-min Rain = 0
KNH1 092146Z 32003KT 04/M02 A3035 RMK A01 T00391021  RH  065%=      5-min Rain = 0
KNH1 092147Z 33003KT 04/M02 A3035 RMK A01 T00391021  RH  065%=      5-min Rain = 0
KNH1 092148Z 33004KT 04/M02 A3035 RMK A01 T00391024  RH  063%=      5-min Rain = 0
KNH1 092149Z 32002KT 04/M02 A3035 RMK A01 T00391024  RH  063%=      5-min Rain = 0
KNH1 092150Z 32002KT 04/M02 A3035 RMK A01 T00381024  RH  064%=      5-min Rain = 0
KNH1 092151Z 33003KT 04/M02 A3035 RMK A01 T00381021  RH  065%=      5-min Rain = 0
KNH1 092152Z 33002KT 04/M02 A3035 RMK A01 T00391024  RH  063%=      5-min Rain = 0
KNH1 092153Z 33002KT 04/M03 A3035 RMK A01 T00381025  RH  063%=      5-min Rain = 0
KNH1 092154Z 33003KT 04/M03 A3035 RMK A01 T00381026  RH  063%=      5-min Rain = 0
KNH1 092155Z 34004KT 04/M02 A3034 RMK A01 T00381023  RH  064%=      5-min Rain = 0
KNH1 092156Z 34003KT 04/M02 A3034 RMK A01 T00381024  RH  064%=      5-min Rain = 0
KNH1 092157Z 34002KT 04/M02 A3034 RMK A01 T00381023  RH  064%=      5-min Rain = 0
KNH1 092158Z 33002KT 04/M02 A3035 RMK A01 T00381019  RH  066%=      5-min Rain = 0
KNH1 092159Z 33002KT 04/M02 A3034 RMK A01 T00391022  RH  065%=      5-min Rain = 0
KNH1 092200Z 33002KT 04/M03 A3034 RMK A01 T00391025  RH  063%=      5-min Rain = 0
KNH1 092201Z 31002KT 04/M02 A3035 RMK A01 T00391024  RH  064%=      5-min Rain = 0
KNH1 092202Z 30003KT 04/M02 A3035 RMK A01 T00391024  RH  063%=      5-min Rain = 0
KNH1 092203Z 31002KT 04/M02 A3035 RMK A01 T00391023  RH  064%=      5-min Rain = 0
KNH1 092204Z 29004KT 04/M02 A3035 RMK A01 T00381024  RH  064%=      5-min Rain = 0
KNH1 092205Z 29004KT 04/M03 A3035 RMK A01 T00371025  RH  064%=      5-min Rain = 0
KNH1 092206Z 31003KT 04/M03 A3035 RMK A01 T00361027  RH  063%=      5-min Rain = 0
KNH1 092207Z 32003KT 04/M02 A3035 RMK A01 T00361021  RH  066%=      5-min Rain = 0
KNH1 092208Z 32003KT 04/M02 A3035 RMK A01 T00361017  RH  068%=      5-min Rain = 0
KNH1 092209Z 31003KT 04/M02 A3035 RMK A01 T00371021  RH  066%=      5-min Rain = 0
KNH1 092210Z 32002KT 04/M02 A3035 RMK A01 T00371020  RH  066%=      5-min Rain = 0
KNH1 092211Z 34003KT 04/M02 A3035 RMK A01 T00381020  RH  066%=      5-min Rain = 0
KNH1 092212Z 34004KT 04/M02 A3035 RMK A01 T00381021  RH  065%=      5-min Rain = 0
KNH1 092213Z 34005KT 04/M02 A3035 RMK A01 T00391021  RH  065%=      5-min Rain = 0
KNH1 092214Z 33004KT 04/M02 A3035 RMK A01 T00381023  RH  064%=      5-min Rain = 0
KNH1 092215Z 34004KT 04/M02 A3035 RMK A01 T00371023  RH  065%=      5-min Rain = 0
KNH1 092216Z 33004KT 04/M02 A3035 RMK A01 T00371022  RH  065%=      5-min Rain = 0
KNH1 092217Z 33004KT 04/M02 A3035 RMK A01 T00371022  RH  065%=      5-min Rain = 0
KNH1 092218Z 34003KT 04/M02 A3035 RMK A01 T00371021  RH  066%=      5-min Rain = 0
KNH1 092219Z 32003KT 04/M02 A3035 RMK A01 T00371020  RH  066%=      5-min Rain = 0
KNH1 092220Z 32002KT 04/M02 A3035 RMK A01 T00371021  RH  066%=      5-min Rain = 0
KNH1 092221Z 31004KT 04/M02 A3035 RMK A01 T00371023  RH  065%=      5-min Rain = 0
KNH1 092222Z 31003KT 04/M02 A3035 RMK A01 T00371024  RH  064%=      5-min Rain = 0
KNH1 092223Z 32003KT 04/M02 A3035 RMK A01 T00371022  RH  065%=      5-min Rain = 0
KNH1 092224Z 33003KT 04/M02 A3035 RMK A01 T00361022  RH  066%=      5-min Rain = 0
KNH1 092225Z 31003KT 04/M02 A3035 RMK A01 T00371022  RH  066%=      5-min Rain = 0
KNH1 092226Z 32002KT 04/M02 A3035 RMK A01 T00361021  RH  066%=      5-min Rain = 0
KNH1 092227Z 33003KT 04/M02 A3035 RMK A01 T00361021  RH  066%=      5-min Rain = 0
KNH1 092228Z 33005KT 04/M02 A3035 RMK A01 T00361020  RH  067%=      5-min Rain = 0
KNH1 092229Z 31003KT 04/M02 A3035 RMK A01 T00371022  RH  065%=      5-min Rain = 0
KNH1 092230Z 32003KT 04/M02 A3035 RMK A01 T00361022  RH  066%=      5-min Rain = 0
KNH1 092231Z 33005KT 04/M02 A3035 RMK A01 T00361021  RH  066%=      5-min Rain = 0
KNH1 092232Z 34005KT 04/M02 A3035 RMK A01 T00371021  RH  066%=      5-min Rain = 0
KNH1 092233Z 33005KT 04/M02 A3035 RMK A01 T00361022  RH  066%=      5-min Rain = 0
KNH1 092234Z 33006KT 04/M03 A3035 RMK A01 T00361025  RH  064%=      5-min Rain = 0
KNH1 092235Z 33004KT 04/M02 A3036 RMK A01 T00361024  RH  065%=      5-min Rain = 0
KNH1 092236Z 32004KT 04/M02 A3036 RMK A01 T00361024  RH  065%=      5-min Rain = 0
KNH1 092237Z 33005KT 04/M03 A3036 RMK A01 T00361026  RH  064%=      5-min Rain = 0
KNH1 092238Z 33004KT 04/M02 A3036 RMK A01 T00361024  RH  065%=      5-min Rain = 0
KNH1 092239Z 32003KT 04/M02 A3035 RMK A01 T00361024  RH  065%=      5-min Rain = 0
KNH1 092240Z 32004KT 04/M02 A3035 RMK A01 T00361022  RH  066%=      5-min Rain = 0
KNH1 092241Z 31004KT 04/M02 A3035 RMK A01 T00361023  RH  065%=      5-min Rain = 0
KNH1 092242Z 31004KT 04/M03 A3035 RMK A01 T00361026  RH  064%=      5-min Rain = 0
KNH1 092243Z 33003KT 04/M03 A3035 RMK A01 T00361025  RH  064%=      5-min Rain = 0
KNH1 092244Z 34005KT 04/M03 A3035 RMK A01 T00361025  RH  064%=      5-min Rain = 0
KNH1 092245Z 34005KT 04/M03 A3035 RMK A01 T00361026  RH  064%=      5-min Rain = 0
KNH1 092246Z 33004KT 04/M03 A3035 RMK A01 T00361026  RH  064%=      5-min Rain = 0
KNH1 092247Z 33004KT 04/M02 A3035 RMK A01 T00351024  RH  065%=      5-min Rain = 0
KNH1 092248Z 33004KT 04/M02 A3035 RMK A01 T00361024  RH  065%=      5-min Rain = 0
KNH1 092249Z 33003KT 04/M03 A3035 RMK A01 T00351025  RH  065%=      5-min Rain = 0
KNH1 092250Z 33004KT 04/M03 A3035 RMK A01 T00351025  RH  064%=      5-min Rain = 0
KNH1 092251Z 33003KT 04/M03 A3035 RMK A01 T00351026  RH  064%=      5-min Rain = 0
KNH1 092252Z 32003KT 04/M03 A3035 RMK A01 T00361025  RH  065%=      5-min Rain = 0
KNH1 092253Z 32003KT 04/M02 A3035 RMK A01 T00351024  RH  065%=      5-min Rain = 0
KNH1 092254Z 33003KT 04/M02 A3035 RMK A01 T00351024  RH  065%=      5-min Rain = 0
KNH1 092255Z 33003KT 04/M02 A3035 RMK A01 T00351024  RH  065%=      5-min Rain = 0
KNH1 092256Z 33004KT 04/M02 A3035 RMK A01 T00351023  RH  066%=      5-min Rain = 0
KNH1 092257Z 33003KT 04/M02 A3035 RMK A01 T00351024  RH  066%=      5-min Rain = 0
KNH1 092258Z 33003KT 03/M02 A3035 RMK A01 T00341022  RH  066%=      5-min Rain = 0
KNH1 092259Z 32003KT 03/M02 A3035 RMK A01 T00341021  RH  067%=      5-min Rain = 0
KNH1 092300Z 32002KT 03/M02 A3035 RMK A01 T00341022  RH  067%=      5-min Rain = 0
KNH1 092301Z 31002KT 03/M02 A3035 RMK A01 T00341022  RH  067%=      5-min Rain = 0
KNH1 092302Z 33003KT 03/M02 A3035 RMK A01 T00341022  RH  067%=      5-min Rain = 0
KNH1 092303Z 33003KT 03/M02 A3035 RMK A01 T00341022  RH  067%=      5-min Rain = 0
KNH1 092304Z 32004KT 03/M02 A3035 RMK A01 T00331023  RH  067%=      5-min Rain = 0
KNH1 092305Z 33003KT 03/M02 A3035 RMK A01 T00331024  RH  066%=      5-min Rain = 0
KNH1 092306Z 34004KT 03/M02 A3035 RMK A01 T00331022  RH  067%=      5-min Rain = 0
KNH1 092307Z 34004KT 03/M02 A3035 RMK A01 T00321021  RH  068%=      5-min Rain = 0
KNH1 092308Z 33003KT 03/M02 A3035 RMK A01 T00321020  RH  069%=      5-min Rain = 0
KNH1 092309Z 33004KT 03/M02 A3035 RMK A01 T00321019  RH  069%=      5-min Rain = 0
KNH1 092310Z 32004KT 03/M02 A3035 RMK A01 T00311020  RH  069%=      5-min Rain = 0
KNH1 092311Z 33004KT 03/M02 A3035 RMK A01 T00311022  RH  068%=      5-min Rain = 0
KNH1 092312Z 33003KT 03/M02 A3035 RMK A01 T00311022  RH  069%=      5-min Rain = 0
KNH1 092313Z 34003KT 03/M02 A3035 RMK A01 T00301021  RH  069%=      5-min Rain = 0
KNH1 092314Z 33002KT 03/M02 A3035 RMK A01 T00301020  RH  070%=      5-min Rain = 0
KNH1 092315Z 32002KT 03/M02 A3035 RMK A01 T00301019  RH  070%=      5-min Rain = 0
KNH1 092316Z 32001KT 03/M02 A3035 RMK A01 T00301020  RH  069%=      5-min Rain = 0
KNH1 092317Z 34001KT 03/M02 A3035 RMK A01 T00301019  RH  070%=      5-min Rain = 0
KNH1 092318Z 34002KT 03/M02 A3035 RMK A01 T00301020  RH  070%=      5-min Rain = 0
KNH1 092319Z 35003KT 03/M02 A3035 RMK A01 T00301019  RH  070%=      5-min Rain = 0
KNH1 092320Z 35003KT 03/M02 A3035 RMK A01 T00291019  RH  071%=      5-min Rain = 0
KNH1 092321Z 35004KT 03/M02 A3035 RMK A01 T00281018  RH  072%=      5-min Rain = 0
KNH1 092322Z 34004KT 03/M02 A3035 RMK A01 T00271019  RH  072%=      5-min Rain = 0
KNH1 092323Z 34004KT 03/M02 A3035 RMK A01 T00261019  RH  072%=      5-min Rain = 0
KNH1 092324Z 34004KT 03/M02 A3035 RMK A01 T00251019  RH  073%=      5-min Rain = 0
KNH1 092325Z 34003KT 02/M02 A3035 RMK A01 T00241018  RH  073%=      5-min Rain = 0
KNH1 092326Z 34004KT 02/M02 A3035 RMK A01 T00241019  RH  073%=      5-min Rain = 0
KNH1 092327Z 34003KT 02/M02 A3035 RMK A01 T00241019  RH  074%=      5-min Rain = 0
KNH1 092328Z 34003KT 02/M02 A3035 RMK A01 T00231018  RH  074%=      5-min Rain = 0
KNH1 092329Z 34003KT 02/M02 A3035 RMK A01 T00221018  RH  075%=      5-min Rain = 0
KNH1 092330Z 34003KT 02/M02 A3035 RMK A01 T00221018  RH  075%=      5-min Rain = 0
KNH1 092331Z 34003KT 02/M02 A3035 RMK A01 T00211017  RH  076%=      5-min Rain = 0
KNH1 092332Z 34003KT 02/M02 A3035 RMK A01 T00211018  RH  076%=      5-min Rain = 0
KNH1 092333Z 35003KT 02/M02 A3035 RMK A01 T00201018  RH  076%=      5-min Rain = 0
KNH1 092334Z 34003KT 02/M02 A3035 RMK A01 T00191018  RH  076%=      5-min Rain = 0
KNH1 092335Z 35003KT 02/M02 A3035 RMK A01 T00191018  RH  077%=      5-min Rain = 0
KNH1 092336Z 34004KT 02/M02 A3035 RMK A01 T00181018  RH  077%=      5-min Rain = 0
KNH1 092337Z 34004KT 02/M02 A3035 RMK A01 T00171018  RH  078%=      5-min Rain = 0
KNH1 092338Z 34004KT 02/M02 A3035 RMK A01 T00161018  RH  078%=      5-min Rain = 0
KNH1 092339Z 33004KT 02/M02 A3035 RMK A01 T00151019  RH  078%=      5-min Rain = 0
KNH1 092340Z 33005KT 02/M02 A3035 RMK A01 T00151020  RH  078%=      5-min Rain = 0
KNH1 092341Z 33004KT 02/M02 A3035 RMK A01 T00151021  RH  077%=      5-min Rain = 0
KNH1 092342Z 33003KT 02/M02 A3035 RMK A01 T00151021  RH  077%=      5-min Rain = 0
KNH1 092343Z 33003KT 02/M02 A3035 RMK A01 T00161022  RH  076%=      5-min Rain = 0
KNH1 092344Z 33003KT 02/M02 A3035 RMK A01 T00161022  RH  076%=      5-min Rain = 0
KNH1 092345Z 33003KT 02/M02 A3035 RMK A01 T00161023  RH  075%=      5-min Rain = 0
KNH1 092346Z 33004KT 02/M02 A3035 RMK A01 T00161024  RH  075%=      5-min Rain = 0
KNH1 092347Z 32003KT 02/M03 A3036 RMK A01 T00161025  RH  074%=      5-min Rain = 0
KNH1 092348Z 33003KT 02/M03 A3036 RMK A01 T00161025  RH  074%=      5-min Rain = 0
KNH1 092349Z 33002KT 02/M03 A3036 RMK A01 T00161025  RH  074%=      5-min Rain = 0
KNH1 092350Z 33003KT 02/M03 A3036 RMK A01 T00151025  RH  075%=      5-min Rain = 0
KNH1 092351Z 33003KT 02/M02 A3036 RMK A01 T00151024  RH  075%=      5-min Rain = 0
KNH1 092352Z 33003KT 01/M03 A3036 RMK A01 T00141025  RH  076%=      5-min Rain = 0
KNH1 092353Z 33002KT 01/M02 A3036 RMK A01 T00131024  RH  076%=      5-min Rain = 0
KNH1 092354Z 33002KT 01/M03 A3035 RMK A01 T00131025  RH  076%=      5-min Rain = 0
KNH1 092355Z 33003KT 01/M03 A3035 RMK A01 T00121025  RH  076%=      5-min Rain = 0
KNH1 092356Z 33003KT 01/M03 A3035 RMK A01 T00121025  RH  076%=      5-min Rain = 0
KNH1 092357Z 32002KT 01/M03 A3035 RMK A01 T00111025  RH  077%=      5-min Rain = 0
KNH1 092358Z 32002KT 01/M03 A3035 RMK A01 T00111025  RH  077%=      5-min Rain = 0
KNH1 092359Z 32002KT 01/M03 A3035 RMK A01 T00111026  RH  077%=      5-min Rain = 0
KNH1 100000Z 31002KT 01/M03 A3035 RMK A01 T00111026  RH  077%=      5-min Rain = 0
KNH1 100001Z 31002KT 01/M03 A3035 RMK A01 T00111026  RH  077%=      5-min Rain = 0
KNH1 100002Z 31002KT 01/M03 A3035 RMK A01 T00101027  RH  077%=      5-min Rain = 0
KNH1 100003Z 30003KT 01/M03 A3035 RMK A01 T00091027  RH  077%=      5-min Rain = 0
KNH1 100004Z 30003KT 01/M03 A3035 RMK A01 T00091027  RH  077%=      5-min Rain = 0
KNH1 100005Z 30003KT 01/M03 A3035 RMK A01 T00081026  RH  077%=      5-min Rain = 0
KNH1 100006Z 30003KT 01/M03 A3035 RMK A01 T00081027  RH  078%=      5-min Rain = 0
KNH1 100007Z 29002KT 01/M03 A3035 RMK A01 T00071026  RH  078%=      5-min Rain = 0
KNH1 100008Z 30002KT 01/M03 A3036 RMK A01 T00071027  RH  078%=      5-min Rain = 0
KNH1 100009Z 30002KT 01/M03 A3036 RMK A01 T00061027  RH  079%=      5-min Rain = 0
KNH1 100010Z 30002KT 01/M03 A3036 RMK A01 T00061026  RH  079%=      5-min Rain = 0
KNH1 100011Z 31002KT 01/M03 A3036 RMK A01 T00051026  RH  079%=      5-min Rain = 0
KNH1 100012Z 31002KT 01/M03 A3036 RMK A01 T00051026  RH  079%=      5-min Rain = 0
KNH1 100013Z 30002KT 01/M03 A3036 RMK A01 T00051026  RH  080%=      5-min Rain = 0
KNH1 100014Z 31002KT 00/M03 A3036 RMK A01 T00041026  RH  080%=      5-min Rain = 0
KNH1 100015Z 31002KT 00/M03 A3036 RMK A01 T00041026  RH  080%=      5-min Rain = 0
KNH1 100016Z 31002KT 00/M03 A3036 RMK A01 T00041026  RH  081%=      5-min Rain = 0
KNH1 100017Z 32001KT 00/M03 A3036 RMK A01 T00041026  RH  081%=      5-min Rain = 0
KNH1 100018Z 31001KT 00/M03 A3036 RMK A01 T00041026  RH  080%=      5-min Rain = 0
KNH1 100019Z 31001KT 00/M03 A3036 RMK A01 T00041027  RH  080%=      5-min Rain = 0
KNH1 100020Z 30002KT 01/M03 A3036 RMK A01 T00051027  RH  080%=      5-min Rain = 0
KNH1 100021Z 30003KT 01/M03 A3036 RMK A01 T00051026  RH  080%=      5-min Rain = 0
KNH1 100022Z 30002KT 01/M03 A3036 RMK A01 T00051026  RH  080%=      5-min Rain = 0
KNH1 100023Z 30002KT 01/M03 A3036 RMK A01 T00051025  RH  080%=      5-min Rain = 0
KNH1 100024Z 31002KT 01/M03 A3036 RMK A01 T00051025  RH  080%=      5-min Rain = 0
KNH1 100025Z 30002KT 01/M03 A3036 RMK A01 T00051025  RH  080%=      5-min Rain = 0
KNH1 100026Z 31002KT 01/M03 A3036 RMK A01 T00051025  RH  080%=      5-min Rain = 0
KNH1 100027Z 30002KT 01/M03 A3036 RMK A01 T00051025  RH  080%=      5-min Rain = 0
KNH1 100028Z 31002KT 01/M03 A3036 RMK A01 T00051025  RH  080%=      5-min Rain = 0
KNH1 100029Z 30002KT 01/M03 A3036 RMK A01 T00051025  RH  080%=      5-min Rain = 0
KNH1 100030Z 29002KT 01/M03 A3036 RMK A01 T00061025  RH  080%=      5-min Rain = 0
KNH1 100031Z 29001KT 01/M03 A3036 RMK A01 T00051025  RH  080%=      5-min Rain = 0
KNH1 100032Z 28001KT 00/M02 A3036 RMK A01 T00041024  RH  082%=      5-min Rain = 0
KNH1 100033Z 28002KT 00/M02 A3036 RMK A01 T00031022  RH  083%=      5-min Rain = 0
KNH1 100034Z 29002KT 00/M02 A3036 RMK A01 T00021022  RH  084%=      5-min Rain = 0
KNH1 100035Z 29003KT 00/M02 A3036 RMK A01 T00011022  RH  085%=      5-min Rain = 0
KNH1 100036Z 29003KT 00/M02 A3036 RMK A01 T00011022  RH  085%=      5-min Rain = 0
KNH1 100037Z 29003KT 00/M02 A3036 RMK A01 T00011022  RH  085%=      5-min Rain = 0
KNH1 100038Z 28003KT 00/M02 A3036 RMK A01 T00011021  RH  085%=      5-min Rain = 0
KNH1 100039Z 28002KT 00/02 A3036 RMK A01 T00000-21  RH  086%=      5-min Rain = 0
KNH1 100040Z 28002KT 00/02 A3036 RMK A01 T00-00-21  RH  086%=      5-min Rain = 0
KNH1 100041Z 27002KT M00/M02 A3036 RMK A01 T10011020  RH  087%=      5-min Rain = 0
KNH1 100042Z 26003KT M00/M02 A3036 RMK A01 T10011020  RH  088%=      5-min Rain = 0
KNH1 100043Z 26003KT M00/M02 A3036 RMK A01 T10021019  RH  088%=      5-min Rain = 0
KNH1 100044Z 26003KT M00/M02 A3036 RMK A01 T10031019  RH  089%=      5-min Rain = 0
KNH1 100045Z 26003KT M00/M02 A3035 RMK A01 T10041019  RH  089%=      5-min Rain = 0
KNH1 100046Z 27003KT M00/M02 A3035 RMK A01 T10041020  RH  089%=      5-min Rain = 0
KNH1 100047Z 27003KT M00/M02 A3035 RMK A01 T10041019  RH  089%=      5-min Rain = 0
KNH1 100048Z 27003KT M00/M02 A3035 RMK A01 T10041020  RH  089%=      5-min Rain = 0
KNH1 100049Z 27003KT M00/M02 A3035 RMK A01 T10041019  RH  089%=      5-min Rain = 0
KNH1 100050Z 27003KT M00/M02 A3035 RMK A01 T10041019  RH  090%=      5-min Rain = 0
KNH1 100051Z 27003KT M01/M02 A3035 RMK A01 T10051019  RH  090%=      5-min Rain = 0
KNH1 100052Z 27003KT M01/M02 A3035 RMK A01 T10051020  RH  090%=      5-min Rain = 0
KNH1 100053Z 28003KT M01/M02 A3035 RMK A01 T10061020  RH  090%=      5-min Rain = 0
KNH1 100054Z 28003KT M01/M02 A3035 RMK A01 T10061021  RH  090%=      5-min Rain = 0
KNH1 100055Z 28003KT M01/M02 A3035 RMK A01 T10071021  RH  090%=      5-min Rain = 0
KNH1 100056Z 28003KT M01/M02 A3035 RMK A01 T10071022  RH  090%=      5-min Rain = 0
KNH1 100057Z 28003KT M01/M02 A3035 RMK A01 T10081022  RH  090%=      5-min Rain = 0
KNH1 100058Z 29003KT M01/M02 A3035 RMK A01 T10081023  RH  089%=      5-min Rain = 0
KNH1 100059Z 29003KT M01/M02 A3035 RMK A01 T10071024  RH  089%=      5-min Rain = 0
KNH1 100100Z 29003KT M01/M02 A3035 RMK A01 T10071024  RH  088%=      5-min Rain = 0
KNH1 100101Z 29003KT M01/M02 A3036 RMK A01 T10061023  RH  088%=      5-min Rain = 0
KNH1 100102Z 29003KT M01/M02 A3036 RMK A01 T10051024  RH  087%=      5-min Rain = 0
KNH1 100103Z 29003KT M01/M02 A3036 RMK A01 T10051024  RH  087%=      5-min Rain = 0
KNH1 100104Z 29003KT M00/M02 A3036 RMK A01 T10041024  RH  086%=      5-min Rain = 0
KNH1 100105Z 29003KT M00/M02 A3035 RMK A01 T10031024  RH  086%=      5-min Rain = 0
KNH1 100106Z 29003KT M00/M02 A3035 RMK A01 T10041024  RH  086%=      5-min Rain = 0
KNH1 100107Z 29003KT M00/M03 A3035 RMK A01 T10041025  RH  086%=      5-min Rain = 0
KNH1 100108Z 29003KT M00/M02 A3035 RMK A01 T10041024  RH  086%=      5-min Rain = 0
KNH1 100109Z 29003KT M00/M02 A3035 RMK A01 T10041024  RH  086%=      5-min Rain = 0
KNH1 100110Z 29003KT M00/M02 A3035 RMK A01 T10041024  RH  086%=      5-min Rain = 0
KNH1 100111Z 29002KT M00/M02 A3036 RMK A01 T10041024  RH  086%=      5-min Rain = 0
KNH1 100112Z 30002KT M00/M02 A3036 RMK A01 T10041024  RH  086%=      5-min Rain = 0
KNH1 100113Z 30002KT M00/M02 A3036 RMK A01 T10041024  RH  086%=      5-min Rain = 0
KNH1 100114Z 30002KT M00/M03 A3036 RMK A01 T10041025  RH  086%=      5-min Rain = 0
KNH1 100115Z 29002KT M00/M03 A3036 RMK A01 T10041025  RH  086%=      5-min Rain = 0
KNH1 100116Z 28002KT M01/M03 A3036 RMK A01 T10051025  RH  086%=      5-min Rain = 0
KNH1 100117Z 28003KT M00/M03 A3035 RMK A01 T10041025  RH  086%=      5-min Rain = 0
KNH1 100118Z 28003KT M00/M03 A3035 RMK A01 T10031025  RH  086%=      5-min Rain = 0
KNH1 100119Z 28003KT M00/M03 A3035 RMK A01 T10031025  RH  085%=      5-min Rain = 0
KNH1 100120Z 28003KT M00/M03 A3035 RMK A01 T10031025  RH  085%=      5-min Rain = 0
KNH1 100121Z 28003KT M00/M02 A3035 RMK A01 T10031024  RH  086%=      5-min Rain = 0
KNH1 100122Z 28003KT M00/M02 A3036 RMK A01 T10031023  RH  086%=      5-min Rain = 0
KNH1 100123Z 28003KT M00/M02 A3036 RMK A01 T10031023  RH  086%=      5-min Rain = 0
KNH1 100124Z 28004KT M00/M02 A3036 RMK A01 T10031023  RH  087%=      5-min Rain = 0
KNH1 100125Z 28004KT M00/M02 A3036 RMK A01 T10041023  RH  087%=      5-min Rain = 0
KNH1 100126Z 28004KT M01/M02 A3036 RMK A01 T10051023  RH  088%=      5-min Rain = 0
KNH1 100127Z 28003KT M01/M02 A3036 RMK A01 T10061024  RH  088%=      5-min Rain = 0
KNH1 100128Z 29003KT M01/M02 A3036 RMK A01 T10071024  RH  088%=      5-min Rain = 0
KNH1 100129Z 30003KT M01/M03 A3036 RMK A01 T10081025  RH  088%=      5-min Rain = 0
KNH1 100130Z 31002KT M01/M03 A3036 RMK A01 T10081025  RH  088%=      5-min Rain = 0
KNH1 100131Z 31002KT M01/M03 A3036 RMK A01 T10081025  RH  088%=      5-min Rain = 0
KNH1 100132Z 32002KT M01/M03 A3036 RMK A01 T10091026  RH  088%=      5-min Rain = 0
KNH1 100133Z 32002KT M01/M03 A3036 RMK A01 T10081027  RH  087%=      5-min Rain = 0
KNH1 100134Z 32002KT M01/M03 A3036 RMK A01 T10081027  RH  087%=      5-min Rain = 0
KNH1 100135Z 32002KT M01/M03 A3036 RMK A01 T10081027  RH  087%=      5-min Rain = 0
KNH1 100136Z 32003KT M01/M03 A3036 RMK A01 T10081027  RH  087%=      5-min Rain = 0
KNH1 100137Z 32003KT M01/M03 A3037 RMK A01 T10081026  RH  087%=      5-min Rain = 0
KNH1 100138Z 32003KT M01/M03 A3037 RMK A01 T10061025  RH  087%=      5-min Rain = 0
KNH1 100139Z 32003KT M00/M02 A3037 RMK A01 T10041024  RH  086%=      5-min Rain = 0
KNH1 100140Z 31003KT M00/M03 A3037 RMK A01 T10031025  RH  085%=      5-min Rain = 0
KNH1 100141Z 32003KT M00/M03 A3037 RMK A01 T10011027  RH  083%=      5-min Rain = 0
KNH1 100142Z 32002KT 00/03 A3037 RMK A01 T00000-28  RH  082%=      5-min Rain = 0
KNH1 100143Z 32003KT 00/M03 A3037 RMK A01 T00011029  RH  080%=      5-min Rain = 0
KNH1 100144Z 31002KT 00/M03 A3037 RMK A01 T00031029  RH  079%=      5-min Rain = 0
KNH1 100145Z 31004KT 00/M03 A3037 RMK A01 T00041028  RH  079%=      5-min Rain = 0
KNH1 100146Z 31004KT 01/M03 A3037 RMK A01 T00051026  RH  080%=      5-min Rain = 0
KNH1 100147Z 31004KT 01/M03 A3037 RMK A01 T00051025  RH  080%=      5-min Rain = 0
KNH1 100148Z 31003KT 01/M02 A3037 RMK A01 T00051024  RH  081%=      5-min Rain = 0
KNH1 100149Z 31003KT 01/M02 A3037 RMK A01 T00051024  RH  081%=      5-min Rain = 0
KNH1 100150Z 32003KT 00/M03 A3037 RMK A01 T00041026  RH  080%=      5-min Rain = 0
KNH1 100151Z 32004KT 01/M03 A3037 RMK A01 T00051026  RH  080%=      5-min Rain = 0
KNH1 100152Z 31004KT 01/M03 A3037 RMK A01 T00051027  RH  079%=      5-min Rain = 0
KNH1 100153Z 31003KT 01/M03 A3037 RMK A01 T00061026  RH  079%=      5-min Rain = 0
KNH1 100154Z 30004KT 01/M03 A3037 RMK A01 T00061025  RH  080%=      5-min Rain = 0
KNH1 100155Z 30005KT 00/M03 A3037 RMK A01 T00041025  RH  081%=      5-min Rain = 0
KNH1 100156Z 30004KT 00/M03 A3037 RMK A01 T00011026  RH  082%=      5-min Rain = 0
KNH1 100157Z 30004KT M00/M03 A3037 RMK A01 T10011026  RH  083%=      5-min Rain = 0
KNH1 100158Z 30003KT M00/M03 A3037 RMK A01 T10031027  RH  084%=      5-min Rain = 0
KNH1 100159Z 31003KT M00/M03 A3037 RMK A01 T10031027  RH  084%=      5-min Rain = 0
KNH1 100200Z 31004KT M00/M03 A3037 RMK A01 T10021029  RH  082%=      5-min Rain = 0
KNH1 100201Z 31004KT 00/03 A3037 RMK A01 T00-00-30  RH  080%=      5-min Rain = 0
KNH1 100202Z 31004KT 00/M03 A3037 RMK A01 T00021031  RH  079%=      5-min Rain = 0
KNH1 100203Z 30004KT 00/M03 A3037 RMK A01 T00031031  RH  078%=      5-min Rain = 0
KNH1 100204Z 30004KT 00/M03 A3037 RMK A01 T00041032  RH  077%=      5-min Rain = 0
KNH1 100205Z 31004KT 00/M03 A3037 RMK A01 T00041032  RH  077%=      5-min Rain = 0
KNH1 100206Z 31004KT 01/M03 A3037 RMK A01 T00051032  RH  077%=      5-min Rain = 0
KNH1 100207Z 31004KT 01/M03 A3037 RMK A01 T00051031  RH  077%=      5-min Rain = 0
KNH1 100208Z 31003KT 01/M03 A3038 RMK A01 T00051031  RH  077%=      5-min Rain = 0
KNH1 100209Z 31003KT 00/M03 A3038 RMK A01 T00041032  RH  077%=      5-min Rain = 0
KNH1 100210Z 31003KT 00/M03 A3038 RMK A01 T00041032  RH  077%=      5-min Rain = 0
KNH1 100211Z 31003KT 00/M03 A3038 RMK A01 T00031032  RH  077%=      5-min Rain = 0
KNH1 100212Z 31003KT 00/M03 A3038 RMK A01 T00021032  RH  078%=      5-min Rain = 0
KNH1 100213Z 31003KT 00/M03 A3038 RMK A01 T00021031  RH  078%=      5-min Rain = 0
KNH1 100214Z 31003KT 00/M03 A3038 RMK A01 T00011031  RH  079%=      5-min Rain = 0
KNH1 100215Z 31003KT 00/M03 A3038 RMK A01 T00011031  RH  079%=      5-min Rain = 0
KNH1 100216Z 31003KT 00/M03 A3038 RMK A01 T00011031  RH  079%=      5-min Rain = 0
KNH1 100217Z 30003KT 00/03 A3038 RMK A01 T00-00-31  RH  080%=      5-min Rain = 0
KNH1 100218Z 31003KT M00/M03 A3038 RMK A01 T10011031  RH  080%=      5-min Rain = 0
KNH1 100219Z 30003KT M00/M03 A3038 RMK A01 T10011030  RH  081%=      5-min Rain = 0
KNH1 100220Z 30004KT M00/M03 A3038 RMK A01 T10011029  RH  081%=      5-min Rain = 0
KNH1 100221Z 30003KT M00/M03 A3038 RMK A01 T10021029  RH  082%=      5-min Rain = 0
KNH1 100222Z 29003KT M00/M03 A3038 RMK A01 T10021028  RH  083%=      5-min Rain = 0
KNH1 100223Z 30003KT M00/M03 A3038 RMK A01 T10041029  RH  083%=      5-min Rain = 0
KNH1 100224Z 30003KT M00/M03 A3038 RMK A01 T10041028  RH  084%=      5-min Rain = 0
KNH1 100225Z 30003KT M01/M03 A3038 RMK A01 T10051028  RH  084%=      5-min Rain = 0
KNH1 100226Z 30003KT M01/M03 A3038 RMK A01 T10061028  RH  085%=      5-min Rain = 0
KNH1 100227Z 30003KT M01/M03 A3038 RMK A01 T10051028  RH  085%=      5-min Rain = 0
KNH1 100228Z 31003KT M00/M03 A3038 RMK A01 T10041027  RH  084%=      5-min Rain = 0
KNH1 100229Z 31003KT M00/M03 A3038 RMK A01 T10041028  RH  084%=      5-min Rain = 0
KNH1 100230Z 32003KT M00/M03 A3038 RMK A01 T10041027  RH  084%=      5-min Rain = 0
KNH1 100231Z 31003KT M00/M03 A3038 RMK A01 T10031027  RH  084%=      5-min Rain = 0
KNH1 100232Z 31003KT M00/M03 A3038 RMK A01 T10031028  RH  083%=      5-min Rain = 0
KNH1 100233Z 31003KT M00/M03 A3038 RMK A01 T10021027  RH  083%=      5-min Rain = 0
KNH1 100234Z 31002KT M00/M03 A3038 RMK A01 T10031028  RH  083%=      5-min Rain = 0
KNH1 100235Z 31003KT M00/M03 A3038 RMK A01 T10031028  RH  083%=      5-min Rain = 0
KNH1 100236Z 31003KT M00/M03 A3038 RMK A01 T10041029  RH  083%=      5-min Rain = 0
KNH1 100237Z 31004KT M00/M03 A3038 RMK A01 T10041028  RH  084%=      5-min Rain = 0
KNH1 100238Z 31004KT M00/M03 A3038 RMK A01 T10041028  RH  084%=      5-min Rain = 0
KNH1 100239Z 31004KT M00/M03 A3038 RMK A01 T10031028  RH  084%=      5-min Rain = 0
KNH1 100240Z 31004KT M00/M03 A3038 RMK A01 T10031028  RH  084%=      5-min Rain = 0
KNH1 100241Z 31004KT M00/M03 A3038 RMK A01 T10031028  RH  083%=      5-min Rain = 0
KNH1 100242Z 31004KT M00/M03 A3038 RMK A01 T10031028  RH  083%=      5-min Rain = 0
KNH1 100243Z 32003KT M00/M03 A3038 RMK A01 T10031028  RH  083%=      5-min Rain = 0
KNH1 100244Z 32002KT M00/M03 A3038 RMK A01 T10031028  RH  083%=      5-min Rain = 0
KNH1 100245Z 32003KT M00/M03 A3038 RMK A01 T10031028  RH  083%=      5-min Rain = 0
KNH1 100246Z 31003KT M00/M03 A3039 RMK A01 T10031029  RH  083%=      5-min Rain = 0
KNH1 100247Z 32003KT M00/M03 A3039 RMK A01 T10031028  RH  083%=      5-min Rain = 0
KNH1 100248Z 31003KT M00/M03 A3039 RMK A01 T10021028  RH  083%=      5-min Rain = 0
KNH1 100249Z 32002KT M00/M03 A3039 RMK A01 T10031028  RH  083%=      5-min Rain = 0
KNH1 100250Z 31003KT M00/M03 A3039 RMK A01 T10021027  RH  083%=      5-min Rain = 0
KNH1 100251Z 31003KT M00/M03 A3039 RMK A01 T10031027  RH  083%=      5-min Rain = 0
KNH1 100252Z 32003KT M00/M03 A3039 RMK A01 T10031027  RH  084%=      5-min Rain = 0
KNH1 100253Z 32003KT M00/M03 A3039 RMK A01 T10031027  RH  084%=      5-min Rain = 0
KNH1 100254Z 31003KT M00/M03 A3039 RMK A01 T10041028  RH  084%=      5-min Rain = 0
KNH1 100255Z 31003KT M00/M03 A3039 RMK A01 T10041028  RH  084%=      5-min Rain = 0
KNH1 100256Z 31003KT M00/M03 A3039 RMK A01 T10041029  RH  084%=      5-min Rain = 0
KNH1 100257Z 33002KT M01/M03 A3039 RMK A01 T10051029  RH  084%=      5-min Rain = 0
KNH1 100258Z 32002KT M01/M03 A3039 RMK A01 T10061029  RH  084%=      5-min Rain = 0
KNH1 100259Z 32002KT M01/M03 A3039 RMK A01 T10061028  RH  085%=      5-min Rain = 0
KNH1 100300Z 31002KT M01/M03 A3039 RMK A01 T10061028  RH  085%=      5-min Rain = 0
KNH1 100301Z 31002KT M01/M03 A3039 RMK A01 T10071029  RH  085%=      5-min Rain = 0
KNH1 100302Z 31003KT M01/M03 A3039 RMK A01 T10071030  RH  085%=      5-min Rain = 0
KNH1 100303Z 31003KT M01/M03 A3039 RMK A01 T10071030  RH  085%=      5-min Rain = 0
KNH1 100304Z 31003KT M01/M03 A3039 RMK A01 T10081029  RH  085%=      5-min Rain = 0
KNH1 100305Z 32002KT M01/M03 A3039 RMK A01 T10071029  RH  086%=      5-min Rain = 0
KNH1 100306Z 31003KT M01/M03 A3039 RMK A01 T10081029  RH  086%=      5-min Rain = 0
KNH1 100307Z 30003KT M01/M03 A3039 RMK A01 T10081028  RH  086%=      5-min Rain = 0
KNH1 100308Z 30003KT M01/M03 A3039 RMK A01 T10081028  RH  086%=      5-min Rain = 0
KNH1 100309Z 31003KT M01/M03 A3039 RMK A01 T10081028  RH  086%=      5-min Rain = 0
KNH1 100310Z 31002KT M01/M03 A3039 RMK A01 T10081028  RH  087%=      5-min Rain = 0
KNH1 100311Z 32002KT M01/M03 A3039 RMK A01 T10081027  RH  087%=      5-min Rain = 0
KNH1 100312Z 31003KT M01/M03 A3039 RMK A01 T10081028  RH  087%=      5-min Rain = 0
KNH1 100313Z 31003KT M01/M03 A3039 RMK A01 T10081028  RH  087%=      5-min Rain = 0
KNH1 100314Z 31003KT M01/M03 A3039 RMK A01 T10081028  RH  087%=      5-min Rain = 0
KNH1 100315Z 31004KT M01/M03 A3039 RMK A01 T10081027  RH  087%=      5-min Rain = 0
KNH1 100316Z 31004KT M01/M03 A3039 RMK A01 T10081027  RH  087%=      5-min Rain = 0
KNH1 100317Z 31004KT M01/M03 A3039 RMK A01 T10071026  RH  087%=      5-min Rain = 0
KNH1 100318Z 31004KT M01/M03 A3039 RMK A01 T10061026  RH  087%=      5-min Rain = 0
KNH1 100319Z 31004KT M01/M03 A3039 RMK A01 T10061026  RH  086%=      5-min Rain = 0
KNH1 100320Z 31004KT M01/M03 A3039 RMK A01 T10061026  RH  086%=      5-min Rain = 0
KNH1 100321Z 31004KT M01/M03 A3039 RMK A01 T10071027  RH  086%=      5-min Rain = 0
KNH1 100322Z 32004KT M01/M03 A3039 RMK A01 T10071027  RH  086%=      5-min Rain = 0
KNH1 100323Z 32003KT M01/M03 A3039 RMK A01 T10071026  RH  087%=      5-min Rain = 0
KNH1 100324Z 32003KT M01/M03 A3039 RMK A01 T10071026  RH  087%=      5-min Rain = 0
KNH1 100325Z 31003KT M01/M03 A3039 RMK A01 T10071027  RH  087%=      5-min Rain = 0
KNH1 100326Z 31003KT M01/M03 A3039 RMK A01 T10071027  RH  086%=      5-min Rain = 0
KNH1 100327Z 31002KT M01/M03 A3039 RMK A01 T10071026  RH  087%=      5-min Rain = 0
KNH1 100328Z 31003KT M01/M03 A3039 RMK A01 T10071026  RH  087%=      5-min Rain = 0
KNH1 100329Z 31003KT M01/M03 A3039 RMK A01 T10061025  RH  087%=      5-min Rain = 0
KNH1 100330Z 31003KT M01/M03 A3039 RMK A01 T10061025  RH  087%=      5-min Rain = 0
KNH1 100331Z 32003KT M01/M03 A3039 RMK A01 T10061026  RH  086%=      5-min Rain = 0
KNH1 100332Z 31003KT M01/M03 A3039 RMK A01 T10061025  RH  087%=      5-min Rain = 0
KNH1 100333Z 32003KT M01/M03 A3039 RMK A01 T10061025  RH  087%=      5-min Rain = 0
KNH1 100334Z 31003KT M01/M02 A3039 RMK A01 T10051024  RH  087%=      5-min Rain = 0
KNH1 100335Z 32002KT M01/M02 A3039 RMK A01 T10051024  RH  087%=      5-min Rain = 0
KNH1 100336Z 32003KT M01/M02 A3039 RMK A01 T10051024  RH  087%=      5-min Rain = 0
KNH1 100337Z 32003KT M01/M02 A3039 RMK A01 T10051024  RH  087%=      5-min Rain = 0
KNH1 100338Z 32002KT M01/M02 A3039 RMK A01 T10051024  RH  087%=      5-min Rain = 0
KNH1 100339Z 32002KT M01/M03 A3039 RMK A01 T10051025  RH  087%=      5-min Rain = 0
KNH1 100340Z 31002KT M01/M03 A3039 RMK A01 T10061025  RH  087%=      5-min Rain = 0
KNH1 100341Z 32003KT M01/M03 A3039 RMK A01 T10071025  RH  087%=      5-min Rain = 0
KNH1 100342Z 31003KT M01/M03 A3039 RMK A01 T10061025  RH  087%=      5-min Rain = 0
KNH1 100343Z 32003KT M01/M03 A3039 RMK A01 T10061025  RH  087%=      5-min Rain = 0
KNH1 100344Z 32004KT M01/M03 A3039 RMK A01 T10061025  RH  087%=      5-min Rain = 0
KNH1 100345Z 32003KT M01/M03 A3039 RMK A01 T10061025  RH  087%=      5-min Rain = 0
KNH1 100346Z 31003KT M01/M03 A3039 RMK A01 T10061025  RH  087%=      5-min Rain = 0
KNH1 100347Z 31003KT M01/M02 A3039 RMK A01 T10051024  RH  087%=      5-min Rain = 0
KNH1 100348Z 32003KT M01/M03 A3039 RMK A01 T10051025  RH  087%=      5-min Rain = 0
KNH1 100349Z 32003KT M01/M03 A3039 RMK A01 T10051025  RH  087%=      5-min Rain = 0
KNH1 100350Z 32003KT M01/M03 A3039 RMK A01 T10051025  RH  087%=      5-min Rain = 0
KNH1 100351Z 32003KT M01/M02 A3039 RMK A01 T10051024  RH  087%=      5-min Rain = 0
KNH1 100352Z 32003KT M01/M02 A3039 RMK A01 T10051024  RH  087%=      5-min Rain = 0
KNH1 100353Z 31003KT M01/M02 A3039 RMK A01 T10061024  RH  088%=      5-min Rain = 0
KNH1 100354Z 32003KT M01/M02 A3039 RMK A01 T10061023  RH  088%=      5-min Rain = 0
KNH1 100355Z 32003KT M01/M02 A3039 RMK A01 T10061023  RH  088%=      5-min Rain = 0
KNH1 100356Z 32003KT M01/M02 A3039 RMK A01 T10061023  RH  088%=      5-min Rain = 0
KNH1 100357Z 32004KT M01/M02 A3039 RMK A01 T10071023  RH  089%=      5-min Rain = 0
KNH1 100358Z 32004KT M01/M02 A3039 RMK A01 T10071022  RH  089%=      5-min Rain = 0
KNH1 100359Z 31004KT M01/M02 A3039 RMK A01 T10071022  RH  089%=      5-min Rain = 0
KNH1 100400Z 31004KT M01/M02 A3039 RMK A01 T10071022  RH  089%=      5-min Rain = 0
KNH1 100401Z 31003KT M01/M02 A3039 RMK A01 T10071023  RH  089%=      5-min Rain = 0
KNH1 100402Z 31003KT M01/M02 A3039 RMK A01 T10081023  RH  089%=      5-min Rain = 0
KNH1 100403Z 32003KT M01/M02 A3039 RMK A01 T10081024  RH  089%=      5-min Rain = 0
KNH1 100404Z 31004KT M01/M02 A3039 RMK A01 T10091024  RH  090%=      5-min Rain = 0
KNH1 100405Z 30003KT M01/M02 A3039 RMK A01 T10091024  RH  090%=      5-min Rain = 0
KNH1 100406Z 30004KT M01/M03 A3039 RMK A01 T10101025  RH  090%=      5-min Rain = 0
KNH1 100407Z 30004KT M01/M03 A3039 RMK A01 T10121027  RH  090%=      5-min Rain = 0
KNH1 100408Z 30004KT M01/M03 A3039 RMK A01 T10141028  RH  090%=      5-min Rain = 0
KNH1 100409Z 30004KT M02/M03 A3039 RMK A01 T10151029  RH  090%=      5-min Rain = 0
KNH1 100410Z 30004KT M02/M03 A3039 RMK A01 T10151028  RH  091%=      5-min Rain = 0
KNH1 100411Z 30005KT M02/M03 A3039 RMK A01 T10151027  RH  091%=      5-min Rain = 0
KNH1 100412Z 30005KT M01/M03 A3039 RMK A01 T10141026  RH  092%=      5-min Rain = 0
KNH1 100413Z 30004KT M01/M03 A3039 RMK A01 T10141026  RH  092%=      5-min Rain = 0
KNH1 100414Z 30004KT M01/M02 A3039 RMK A01 T10131024  RH  092%=      5-min Rain = 0
KNH1 100415Z 30004KT M01/M02 A3039 RMK A01 T10131024  RH  092%=      5-min Rain = 0
KNH1 100416Z 31005KT M01/M02 A3039 RMK A01 T10131022  RH  093%=      5-min Rain = 0
KNH1 100417Z 31004KT M01/M02 A3039 RMK A01 T10121022  RH  093%=      5-min Rain = 0
KNH1 100418Z 31004KT M01/M02 A3039 RMK A01 T10121022  RH  093%=      5-min Rain = 0
KNH1 100419Z 31004KT M01/M02 A3039 RMK A01 T10121022  RH  093%=      5-min Rain = 0
KNH1 100420Z 31004KT M01/M02 A3039 RMK A01 T10111022  RH  093%=      5-min Rain = 0
KNH1 100421Z 31003KT M01/M02 A3039 RMK A01 T10111022  RH  092%=      5-min Rain = 0
KNH1 100422Z 31004KT M01/M02 A3039 RMK A01 T10111022  RH  092%=      5-min Rain = 0
KNH1 100423Z 32003KT M01/M02 A3039 RMK A01 T10111022  RH  092%=      5-min Rain = 0
KNH1 100424Z 31004KT M01/M02 A3039 RMK A01 T10111022  RH  092%=      5-min Rain = 0
KNH1 100425Z 32003KT M01/M02 A3039 RMK A01 T10121023  RH  092%=      5-min Rain = 0
KNH1 100426Z 32004KT M01/M02 A3039 RMK A01 T10121023  RH  092%=      5-min Rain = 0
KNH1 100427Z 31004KT M01/M02 A3039 RMK A01 T10121023  RH  092%=      5-min Rain = 0
KNH1 100428Z 31003KT M01/M02 A3039 RMK A01 T10131024  RH  092%=      5-min Rain = 0
KNH1 100429Z 32004KT M01/M02 A3039 RMK A01 T10131024  RH  092%=      5-min Rain = 0
KNH1 100430Z 31004KT M01/M02 A3039 RMK A01 T10131024  RH  092%=      5-min Rain = 0
KNH1 100431Z 32003KT M01/M02 A3039 RMK A01 T10131024  RH  093%=      5-min Rain = 0
KNH1 100432Z 32003KT M01/M02 A3039 RMK A01 T10131024  RH  093%=      5-min Rain = 0
KNH1 100433Z 32004KT M01/M02 A3039 RMK A01 T10131024  RH  092%=      5-min Rain = 0
KNH1 100434Z 32004KT M01/M02 A3039 RMK A01 T10131023  RH  093%=      5-min Rain = 0
KNH1 100435Z 32004KT M01/M02 A3039 RMK A01 T10131023  RH  093%=      5-min Rain = 0
KNH1 100436Z 32004KT M01/M02 A3039 RMK A01 T10131023  RH  092%=      5-min Rain = 0
KNH1 100437Z 32004KT M01/M02 A3039 RMK A01 T10131024  RH  092%=      5-min Rain = 0
KNH1 100438Z 32005KT M01/M02 A3039 RMK A01 T10131024  RH  092%=      5-min Rain = 0
KNH1 100439Z 33005KT M01/M02 A3039 RMK A01 T10131024  RH  093%=      5-min Rain = 0
KNH1 100440Z 33005KT M01/M02 A3039 RMK A01 T10131023  RH  093%=      5-min Rain = 0
KNH1 100441Z 32004KT M01/M02 A3039 RMK A01 T10131023  RH  093%=      5-min Rain = 0
KNH1 100442Z 32004KT M01/M02 A3039 RMK A01 T10131023  RH  093%=      5-min Rain = 0
KNH1 100443Z 32004KT M01/M02 A3039 RMK A01 T10131023  RH  093%=      5-min Rain = 0
KNH1 100444Z 32005KT M01/M02 A3039 RMK A01 T10131023  RH  093%=      5-min Rain = 0
KNH1 100445Z 32004KT M01/M02 A3039 RMK A01 T10131023  RH  093%=      5-min Rain = 0
KNH1 100446Z 32004KT M01/M02 A3039 RMK A01 T10131023  RH  093%=      5-min Rain = 0
KNH1 100447Z 31004KT M01/M02 A3039 RMK A01 T10121023  RH  093%=      5-min Rain = 0
KNH1 100448Z 31004KT M01/M02 A3039 RMK A01 T10131023  RH  092%=      5-min Rain = 0
KNH1 100449Z 32004KT M01/M02 A3039 RMK A01 T10131024  RH  092%=      5-min Rain = 0
KNH1 100450Z 32004KT M01/M02 A3039 RMK A01 T10131024  RH  092%=      5-min Rain = 0
KNH1 100451Z 32003KT M01/M02 A3039 RMK A01 T10131024  RH  092%=      5-min Rain = 0
KNH1 100452Z 32004KT M01/M02 A3039 RMK A01 T10131024  RH  092%=      5-min Rain = 0
KNH1 100453Z 31004KT M01/M03 A3039 RMK A01 T10131025  RH  092%=      5-min Rain = 0
KNH1 100454Z 32003KT M01/M03 A3039 RMK A01 T10141025  RH  092%=      5-min Rain = 0
KNH1 100455Z 32003KT M01/M03 A304 RMK A01 T10141025  RH  092%=      5-min Rain = 0
KNH1 100456Z 31004KT M01/M03 A304 RMK A01 T10141025  RH  092%=      5-min Rain = 0
KNH1 100457Z 32003KT M01/M03 A304 RMK A01 T10141025  RH  092%=      5-min Rain = 0
KNH1 100458Z 32003KT M01/M03 A304 RMK A01 T10141025  RH  092%=      5-min Rain = 0
KNH1 100459Z 32003KT M02/M03 A304 RMK A01 T10151026  RH  092%=      5-min Rain = 0
KNH1 100500Z 32003KT M02/M03 A304 RMK A01 T10151026  RH  092%=      5-min Rain = 0
KNH1 100501Z 32004KT M02/M03 A304 RMK A01 T10151026  RH  092%=      5-min Rain = 0
KNH1 100502Z 32004KT M02/M03 A304 RMK A01 T10151026  RH  093%=      5-min Rain = 0
KNH1 100503Z 33004KT M02/M03 A304 RMK A01 T10151026  RH  093%=      5-min Rain = 0
KNH1 100504Z 33004KT M02/M03 A304 RMK A01 T10151026  RH  093%=      5-min Rain = 0
KNH1 100505Z 33004KT M02/M03 A304 RMK A01 T10151026  RH  093%=      5-min Rain = 0
KNH1 100506Z 33005KT M02/M03 A304 RMK A01 T10161026  RH  093%=      5-min Rain = 0
KNH1 100507Z 33004KT M02/M03 A3039 RMK A01 T10161026  RH  093%=      5-min Rain = 0
KNH1 100508Z 32004KT M02/M03 A3039 RMK A01 T10171027  RH  092%=      5-min Rain = 0
KNH1 100509Z 32004KT M02/M03 A3039 RMK A01 T10171027  RH  093%=      5-min Rain = 0
KNH1 100510Z 33004KT M02/M03 A3039 RMK A01 T10161026  RH  093%=      5-min Rain = 0
KNH1 100511Z 33004KT M02/M03 A3039 RMK A01 T10161026  RH  093%=      5-min Rain = 0
KNH1 100512Z 32003KT M02/M03 A3039 RMK A01 T10151026  RH  093%=      5-min Rain = 0
KNH1 100513Z 32003KT M02/M03 A3039 RMK A01 T10151026  RH  093%=      5-min Rain = 0
KNH1 100514Z 32003KT M02/M03 A3039 RMK A01 T10151026  RH  093%=      5-min Rain = 0
KNH1 100515Z 32003KT M02/M03 A3039 RMK A01 T10151026  RH  093%=      5-min Rain = 0
KNH1 100516Z 32003KT M02/M03 A3039 RMK A01 T10151026  RH  093%=      5-min Rain = 0
KNH1 100517Z 31003KT M02/M03 A3039 RMK A01 T10151026  RH  093%=      5-min Rain = 0
KNH1 100518Z 31003KT M02/M03 A3039 RMK A01 T10161026  RH  093%=      5-min Rain = 0
KNH1 100519Z 31004KT M02/M03 A304 RMK A01 T10151026  RH  092%=      5-min Rain = 0
KNH1 100520Z 31004KT M02/M03 A304 RMK A01 T10161027  RH  092%=      5-min Rain = 0
KNH1 100521Z 31004KT M02/M03 A304 RMK A01 T10161027  RH  092%=      5-min Rain = 0
KNH1 100522Z 31004KT M02/M03 A304 RMK A01 T10171028  RH  092%=      5-min Rain = 0
KNH1 100523Z 31004KT M02/M03 A304 RMK A01 T10171028  RH  092%=      5-min Rain = 0
KNH1 100524Z 32003KT M02/M03 A304 RMK A01 T10171028  RH  092%=      5-min Rain = 0
KNH1 100525Z 31003KT M02/M03 A304 RMK A01 T10171028  RH  092%=      5-min Rain = 0
KNH1 100526Z 32002KT M02/M03 A304 RMK A01 T10171028  RH  092%=      5-min Rain = 0
KNH1 100527Z 31002KT M02/M03 A304 RMK A01 T10171028  RH  093%=      5-min Rain = 0
KNH1 100528Z 31003KT M02/M03 A304 RMK A01 T10171028  RH  092%=      5-min Rain = 0
KNH1 100529Z 32003KT M02/M03 A304 RMK A01 T10171028  RH  093%=      5-min Rain = 0
KNH1 100530Z 31003KT M02/M03 A3039 RMK A01 T10171028  RH  093%=      5-min Rain = 0
KNH1 100531Z 31003KT M02/M03 A3039 RMK A01 T10171028  RH  092%=      5-min Rain = 0
KNH1 100532Z 31003KT M02/M03 A3039 RMK A01 T10171028  RH  092%=      5-min Rain = 0
KNH1 100533Z 31004KT M02/M03 A3039 RMK A01 T10171028  RH  092%=      5-min Rain = 0
KNH1 100534Z 31003KT M02/M03 A3039 RMK A01 T10171027  RH  092%=      5-min Rain = 0
KNH1 100535Z 31003KT M02/M03 A3039 RMK A01 T10171027  RH  092%=      5-min Rain = 0
KNH1 100536Z 31004KT M02/M03 A3039 RMK A01 T10171028  RH  092%=      5-min Rain = 0
KNH1 100537Z 31004KT M02/M03 A3039 RMK A01 T10161027  RH  092%=      5-min Rain = 0
KNH1 100538Z 31004KT M02/M03 A3039 RMK A01 T10161027  RH  092%=      5-min Rain = 0
KNH1 100539Z 31004KT M02/M03 A3039 RMK A01 T10161026  RH  093%=      5-min Rain = 0
KNH1 100540Z 31004KT M02/M03 A3039 RMK A01 T10151026  RH  092%=      5-min Rain = 0
KNH1 100541Z 31004KT M02/M03 A3039 RMK A01 T10151026  RH  092%=      5-min Rain = 0
KNH1 100542Z 30004KT M02/M03 A3039 RMK A01 T10151026  RH  092%=      5-min Rain = 0
KNH1 100543Z 30004KT M02/M03 A3039 RMK A01 T10151026  RH  092%=      5-min Rain = 0
KNH1 100544Z 30004KT M02/M03 A3039 RMK A01 T10161028  RH  091%=      5-min Rain = 0
KNH1 100545Z 30004KT M02/M03 A3039 RMK A01 T10171029  RH  091%=      5-min Rain = 0
KNH1 100546Z 30005KT M02/M03 A3039 RMK A01 T10181030  RH  092%=      5-min Rain = 0
KNH1 100547Z 30005KT M02/M03 A3039 RMK A01 T10191031  RH  092%=      5-min Rain = 0
KNH1 100548Z 30005KT M02/M03 A3039 RMK A01 T10201031  RH  092%=      5-min Rain = 0
KNH1 100549Z 30004KT M02/M03 A3039 RMK A01 T10201030  RH  093%=      5-min Rain = 0
KNH1 100550Z 29004KT M02/M03 A3039 RMK A01 T10191028  RH  093%=      5-min Rain = 0
KNH1 100551Z 29004KT M02/M03 A3039 RMK A01 T10191028  RH  093%=      5-min Rain = 0
KNH1 100552Z 30004KT M02/M03 A3039 RMK A01 T10191028  RH  093%=      5-min Rain = 0
KNH1 100553Z 29004KT M02/M03 A3039 RMK A01 T10191029  RH  093%=      5-min Rain = 0
KNH1 100554Z 29004KT M02/M03 A3039 RMK A01 T10191029  RH  093%=      5-min Rain = 0
KNH1 100555Z 29003KT M02/M03 A3039 RMK A01 T10201030  RH  093%=      5-min Rain = 0
KNH1 100556Z 29004KT M02/M03 A3039 RMK A01 T10201030  RH  093%=      5-min Rain = 0
KNH1 100557Z 30003KT M02/M03 A3039 RMK A01 T10201029  RH  093%=      5-min Rain = 0
KNH1 100558Z 30003KT M02/M03 A3039 RMK A01 T10201029  RH  093%=      5-min Rain = 0
KNH1 100559Z 30003KT M02/M03 A3039 RMK A01 T10201029  RH  094%=      5-min Rain = 0

Page generated in 0.1564 seconds.